M I D A S
Marine Information and Data Acquisition System
Tripno 1978 of the Zeeleeuw from 2010-10-21 07:17:02 to 2010-10-21 15:28:27
Back to CruiseResearch ActivitiesStationsMapUnderway DataData graphs

EquipmentUnitsComment
TimeDGPSUTC
LatitudeDGPSDM.mWGS84
LongitudeDGPSDM.mWGS84
TemperatureSBE03/SBE38deg celciusITS90
ConductivitySBE21S/mITS90
SalinitySBE21 Practical Salinity Units
ChlorophylAChelsea fluorimeterg/lCalibrated in Aceton
Missing or incorrect values are displayed as -999
Sea surface data collected by the RV Zeeleeuw from 2010-10-21 06:05:45 to 2010-10-21 15:34:58
                                                                                    Next 1000 lines
Time Latitude Longitude Temperature Conductivity Salinity ChlorophylA
2010-10-21 06:05:53 51°13.663 2°55.963 17.0536 0.065787 0.373148 -0.478207
2010-10-21 06:05:59 51°13.664 2°55.962 17.0611 0.065787 0.373148 -0.478207
2010-10-21 06:06:06 51°13.664 2°55.962 17.0613 0.065787 0.373148 -0.443383
2010-10-21 06:06:10 51°13.664 2°55.962 17.0647 0.065787 0.373148 -0.443383
2010-10-21 06:06:14 51°13.664 2°55.962 17.066 0.065787 0.373148 -0.443383
2010-10-21 06:06:20 51°13.664 2°55.962 17.0549 0.065787 0.373148 -0.443383
2010-10-21 06:06:26 51°13.663 2°55.962 17.0501 0.065787 0.373148 -0.443383
2010-10-21 06:06:30 51°13.663 2°55.962 17.0391 0.065787 0.373148 -0.478207
2010-10-21 06:06:34 51°13.663 2°55.962 17.0482 0.065787 0.373148 -0.443383
2010-10-21 06:06:40 51°13.663 2°55.962 17.0568 0.065787 0.373154 -0.443383
2010-10-21 06:06:44 51°13.663 2°55.962 17.0636 0.065787 0.373154 -0.443383
2010-10-21 06:06:50 51°13.663 2°55.962 17.0582 0.065787 0.373154 -0.478207
2010-10-21 06:06:56 51°13.663 2°55.961 17.0652 0.065787 0.373154 -0.443383
2010-10-21 06:07:00 51°13.663 2°55.961 17.0725 0.065787 0.37316 -0.478207
2010-10-21 06:07:04 51°13.664 2°55.961 17.0684 0.065787 0.37316 -0.443383
2010-10-21 06:07:10 51°13.663 2°55.961 17.0545 0.065787 0.37316 -0.443383
2010-10-21 06:07:16 51°13.663 2°55.961 17.0649 0.065787 0.37316 -0.443383
2010-10-21 06:07:20 51°13.663 2°55.961 17.062 0.065787 0.373154 -0.443383
2010-10-21 06:07:24 51°13.663 2°55.961 17.0577 0.065787 0.373154 -0.408559
2010-10-21 06:07:30 51°13.663 2°55.961 17.0491 0.065787 0.373154 -0.478207
2010-10-21 06:07:34 51°13.663 2°55.961 17.0397 0.065787 0.373154 -0.443383
2010-10-21 06:07:40 51°13.663 2°55.961 17.0443 0.065787 0.373154 -0.478207
2010-10-21 06:07:44 51°13.663 2°55.96 17.0636 0.065787 0.373154 -0.478207
2010-10-21 06:07:50 51°13.663 2°55.961 17.0451 0.065787 0.373154 -0.443383
2010-10-21 06:07:54 51°13.663 2°55.96 17.0471 0.065787 0.373154 -0.443383
2010-10-21 06:08:00 51°13.663 2°55.96 17.0607 0.065787 0.37316 -0.443383
2010-10-21 06:08:06 51°13.663 2°55.96 17.0688 0.065787 0.373154 -0.478207
2010-10-21 06:08:10 51°13.663 2°55.96 17.0669 0.065787 0.37316 -0.443383
2010-10-21 06:08:14 51°13.663 2°55.96 17.0576 0.065787 0.37316 -0.443383
2010-10-21 06:08:20 51°13.663 2°55.96 17.0528 0.065787 0.37316 -0.443383
2010-10-21 06:08:26 51°13.663 2°55.96 17.0603 0.065787 0.373154 -0.443383
2010-10-21 06:08:30 51°13.663 2°55.96 17.056 0.065787 0.37316 -0.443383
2010-10-21 06:08:34 51°13.663 2°55.96 17.0658 0.065787 0.37316 -0.478207
2010-10-21 06:08:40 51°13.663 2°55.96 17.064 0.065787 0.37316 -0.478207
2010-10-21 06:08:46 51°13.663 2°55.96 17.0625 0.065787 0.37316 -0.478207
2010-10-21 06:08:50 51°13.663 2°55.96 17.0601 0.065787 0.37316 -0.408559
2010-10-21 06:08:54 51°13.663 2°55.96 17.0649 0.065787 0.37316 -0.408559
2010-10-21 06:09:00 51°13.663 2°55.96 17.0649 0.065787 0.37316 -0.443383
2010-10-21 06:09:04 51°13.663 2°55.96 17.0918 0.065787 0.373167 -0.443383
2010-10-21 06:09:10 51°13.663 2°55.96 17.0734 0.065787 0.37316 -0.443383
2010-10-21 06:09:16 51°13.663 2°55.96 17.0611 0.065787 0.37316 -0.443383
2010-10-21 06:09:20 51°13.663 2°55.96 17.0578 0.065787 0.37316 -0.478207
2010-10-21 06:09:24 51°13.663 2°55.96 17.0733 0.065787 0.37316 -0.478207
2010-10-21 06:09:29 51°13.663 2°55.96 17.0634 0.065787 0.37316 -0.443383
2010-10-21 06:09:35 51°13.663 2°55.96 17.0688 0.065787 0.37316 -0.443383
2010-10-21 06:09:39 51°13.663 2°55.96 17.0644 0.065787 0.373167 -0.478207
2010-10-21 06:09:44 51°13.663 2°55.96 17.0623 0.065787 0.373167 -0.478207
2010-10-21 06:09:49 51°13.663 2°55.96 17.0561 0.065787 0.373167 -0.478207
2010-10-21 06:09:54 51°13.663 2°55.96 17.0553 0.065787 0.373167 -0.443383
2010-10-21 06:09:59 51°13.663 2°55.959 17.0552 0.065787 0.373167 -0.478207
2010-10-21 06:10:05 51°13.663 2°55.959 17.0572 0.065787 0.373167 -0.443383
2010-10-21 06:10:10 51°13.663 2°55.959 17.0555 0.065787 0.373167 -0.443383
2010-10-21 06:10:15 51°13.662 2°55.959 17.0667 0.065787 0.373167 -0.443383
2010-10-21 06:10:21 51°13.663 2°55.959 17.0423 0.065787 0.37316 -0.478207
2010-10-21 06:10:26 51°13.663 2°55.959 17.0787 0.065787 0.373167 -0.443383
2010-10-21 06:10:29 51°13.663 2°55.959 17.0382 0.065683 0.372557 -0.443383
2010-10-21 06:10:34 51°13.663 2°55.959 17.0471 0.065787 0.373173 -0.478207
2010-10-21 06:10:40 51°13.663 2°55.959 17.0632 0.065787 0.37316 -0.443383
2010-10-21 06:10:45 51°13.663 2°55.96 17.0715 0.065787 0.37316 -0.443383
2010-10-21 06:10:49 51°13.663 2°55.96 17.0602 0.065787 0.373167 -0.443383
2010-10-21 06:10:54 51°13.663 2°55.959 17.0559 0.065787 0.373173 -0.478207
2010-10-21 06:11:00 51°13.663 2°55.959 17.0493 0.065787 0.373173 -0.443383
2010-10-21 06:11:05 51°13.663 2°55.96 17.0643 0.065787 0.373167 -0.478207
2010-10-21 06:11:09 51°13.663 2°55.96 17.0669 0.065787 0.373173 -0.443383
2010-10-21 06:11:14 51°13.663 2°55.96 17.0697 0.065787 0.373173 -0.443383
2010-10-21 06:11:20 51°13.663 2°55.96 17.0607 0.065787 0.373173 -0.443383
2010-10-21 06:11:24 51°13.663 2°55.96 17.0603 0.065787 0.373167 -0.408559
2010-10-21 06:11:30 51°13.663 2°55.96 17.0515 0.065787 0.373173 -0.443383
2010-10-21 06:11:34 51°13.663 2°55.96 17.0559 0.065683 0.372563 -0.443383
2010-10-21 06:11:39 51°13.662 2°55.96 17.062 0.065683 0.372563 -0.443383
2010-10-21 06:11:44 51°13.662 2°55.96 17.0626 0.065683 0.372563 -0.443383
2010-10-21 06:11:50 51°13.662 2°55.96 17.064 0.065787 0.373173 -0.443383
2010-10-21 06:11:56 51°13.662 2°55.96 17.0581 0.065787 0.373173 -0.443383
2010-10-21 06:12:00 51°13.663 2°55.96 17.0719 0.065787 0.373173 -0.443383
2010-10-21 06:12:04 51°13.663 2°55.96 17.0762 0.065787 0.373179 -0.478207
2010-10-21 06:12:10 51°13.663 2°55.96 17.0686 0.065787 0.373167 -0.478207
2010-10-21 06:12:16 51°13.663 2°55.96 17.0704 0.065787 0.373167 -0.478207
2010-10-21 06:12:20 51°13.663 2°55.96 17.076 0.065787 0.373173 -0.478207
2010-10-21 06:12:25 51°13.663 2°55.96 17.062 0.065787 0.373173 -0.443383
2010-10-21 06:12:30 51°13.663 2°55.96 17.0668 0.065787 0.373179 -0.443383
2010-10-21 06:12:35 51°13.663 2°55.96 17.0654 0.065787 0.373173 -0.443383
2010-10-21 06:12:40 51°13.663 2°55.96 17.074 0.065683 0.37257 -0.478207
2010-10-21 06:12:45 51°13.663 2°55.96 17.0898 0.065683 0.37257 -0.478207
2010-10-21 06:12:49 51°13.663 2°55.96 17.0862 0.065787 0.373179 -0.478207
2010-10-21 06:12:55 51°13.663 2°55.96 17.0645 0.065787 0.373173 -0.478207
2010-10-21 06:13:00 51°13.663 2°55.96 17.0679 0.065787 0.373173 -0.443383
2010-10-21 06:13:06 51°13.663 2°55.96 17.065 0.065787 0.373179 -0.478207
2010-10-21 06:13:10 51°13.663 2°55.96 17.08 0.065787 0.373179 -0.443383
2010-10-21 06:13:15 51°13.662 2°55.96 17.0749 0.065787 0.373179 -0.443383
2010-10-21 06:13:21 51°13.662 2°55.96 17.0751 0.065787 0.373179 -0.443383
2010-10-21 06:13:26 51°13.662 2°55.96 17.0854 0.065787 0.373173 -0.478207
2010-10-21 06:13:30 51°13.662 2°55.96 17.0693 0.065787 0.373179 -0.443383
2010-10-21 06:13:34 51°13.662 2°55.96 17.0834 0.065787 0.373179 -0.478207
2010-10-21 06:13:40 51°13.662 2°55.96 17.1022 0.065787 0.373179 -0.443383
2010-10-21 06:13:46 51°13.662 2°55.96 17.0823 0.065787 0.373179 -0.443383
2010-10-21 06:13:49 51°13.662 2°55.96 17.1086 0.065787 0.373186 -0.478207
2010-10-21 06:13:54 51°13.662 2°55.96 17.0986 0.065787 0.373179 -0.443383
2010-10-21 06:14:00 51°13.662 2°55.96 17.0833 0.065787 0.373179 -0.443383
2010-10-21 06:14:05 51°13.662 2°55.96 17.076 0.065787 0.373179 -0.408559
2010-10-21 06:14:10 51°13.662 2°55.96 17.0783 0.065787 0.373173 -0.443383
2010-10-21 06:14:14 51°13.662 2°55.96 17.0987 0.065787 0.373173 -0.443383
2010-10-21 06:14:20 51°13.662 2°55.96 17.0612 0.065787 0.373179 -0.443383
2010-10-21 06:14:24 51°13.662 2°55.961 17.0516 0.065787 0.373186 -0.478207
2010-10-21 06:14:30 51°13.662 2°55.961 17.0552 0.065787 0.373179 -0.443383
2010-10-21 06:14:35 51°13.662 2°55.96 17.0585 0.065787 0.373179 -0.443383
2010-10-21 06:14:39 51°13.662 2°55.96 17.0526 0.065787 0.373186 -0.443383
2010-10-21 06:14:44 51°13.662 2°55.96 17.0569 0.065787 0.373186 -0.443383
2010-10-21 06:14:50 51°13.662 2°55.961 17.0643 0.065787 0.373186 -0.443383
2010-10-21 06:14:55 51°13.662 2°55.961 17.0644 0.065787 0.373186 -0.443383
2010-10-21 06:14:59 51°13.662 2°55.96 17.0565 0.065787 0.373186 -0.408559
2010-10-21 06:15:04 51°13.662 2°55.96 17.0644 0.065787 0.373186 -0.443383
2010-10-21 06:15:09 51°13.662 2°55.96 17.0657 0.065787 0.373186 -0.478207
2010-10-21 06:15:15 51°13.662 2°55.96 17.0602 0.065787 0.373186 -0.478207
2010-10-21 06:15:19 51°13.662 2°55.961 17.0667 0.065787 0.373186 -0.408559
2010-10-21 06:15:24 51°13.662 2°55.96 17.0545 0.065787 0.373186 -0.443383
2010-10-21 06:15:29 51°13.662 2°55.961 17.0634 0.065787 0.373186 -0.408559
2010-10-21 06:15:36 51°13.662 2°55.96 17.0638 0.065787 0.373186 -0.443383
2010-10-21 06:15:39 51°13.662 2°55.96 17.0653 0.065787 0.373179 -0.478207
2010-10-21 06:15:44 51°13.662 2°55.96 17.059 0.065787 0.373179 -0.478207
2010-10-21 06:15:49 51°13.662 2°55.96 17.0738 0.065787 0.373186 -0.478207
2010-10-21 06:15:54 51°13.662 2°55.96 17.0795 0.065683 0.372576 -0.443383
2010-10-21 06:16:00 51°13.662 2°55.96 17.0862 0.065787 0.373186 -0.443383
2010-10-21 06:16:05 51°13.662 2°55.96 17.0749 0.065683 0.372582 -0.443383
2010-10-21 06:16:10 51°13.662 2°55.96 17.0745 0.065787 0.373192 -0.443383
2010-10-21 06:16:14 51°13.662 2°55.96 17.066 0.065787 0.373192 -0.443383
2010-10-21 06:16:20 51°13.662 2°55.96 17.066 0.065787 0.373198 -0.443383
2010-10-21 06:16:25 51°13.662 2°55.96 17.067 0.065787 0.373186 -0.478207
2010-10-21 06:16:29 51°13.662 2°55.96 17.0647 0.065787 0.373192 -0.443383
2010-10-21 06:16:34 51°13.662 2°55.96 17.0607 0.065787 0.373186 -0.443383
2010-10-21 06:16:40 51°13.662 2°55.96 17.0652 0.065787 0.373186 -0.443383
2010-10-21 06:16:45 51°13.662 2°55.96 17.0752 0.065787 0.373186 -0.443383
2010-10-21 06:16:50 51°13.662 2°55.96 17.0732 0.065787 0.373192 -0.443383
2010-10-21 06:16:54 51°13.662 2°55.96 17.0711 0.065787 0.373192 -0.478207
2010-10-21 06:16:59 51°13.662 2°55.96 17.0711 0.065787 0.373192 -0.478207
2010-10-21 06:17:05 51°13.662 2°55.96 17.0864 0.065787 0.373186 -0.443383
2010-10-21 06:17:10 51°13.662 2°55.96 17.0796 0.065787 0.373192 -0.408559
2010-10-21 06:17:14 51°13.662 2°55.96 17.0796 0.065787 0.373192 -0.408559
2010-10-21 06:17:19 51°13.662 2°55.96 17.0804 0.065787 0.373186 -0.443383
2010-10-21 06:17:24 51°13.662 2°55.96 17.0749 0.065787 0.373192 -0.443383
2010-10-21 06:17:29 51°13.662 2°55.96 17.0731 0.065787 0.373192 -0.478207
2010-10-21 06:17:35 51°13.662 2°55.96 17.0721 0.065787 0.373198 -0.478207
2010-10-21 06:17:39 51°13.662 2°55.96 17.0944 0.065787 0.373192 -0.443383
2010-10-21 06:17:44 51°13.662 2°55.96 17.0872 0.065787 0.373192 -0.443383
2010-10-21 06:17:49 51°13.662 2°55.96 17.0825 0.065787 0.373192 -0.443383
2010-10-21 06:17:55 51°13.662 2°55.96 17.0706 0.065787 0.373192 -0.443383
2010-10-21 06:17:59 51°13.662 2°55.96 17.0598 0.065787 0.373186 -0.478207
2010-10-21 06:18:04 51°13.662 2°55.96 17.0624 0.065787 0.373192 -0.443383
2010-10-21 06:18:09 51°13.662 2°55.96 17.0686 0.065787 0.373192 -0.443383
2010-10-21 06:18:15 51°13.662 2°55.96 17.0734 0.065787 0.373192 -0.443383
2010-10-21 06:18:19 51°13.662 2°55.96 17.0833 0.065683 0.372582 -0.443383
2010-10-21 06:18:24 51°13.662 2°55.96 17.0687 0.065787 0.373198 -0.443383
2010-10-21 06:18:29 51°13.662 2°55.96 17.0681 0.065787 0.373198 -0.408559
2010-10-21 06:18:34 51°13.662 2°55.96 17.0569 0.065787 0.373198 -0.443383
2010-10-21 06:18:39 51°13.662 2°55.96 17.0619 0.065787 0.373192 -0.478207
2010-10-21 06:18:44 51°13.662 2°55.96 17.0607 0.065787 0.373192 -0.478207
2010-10-21 06:18:49 51°13.662 2°55.96 17.0607 0.065787 0.373198 -0.478207
2010-10-21 06:18:54 51°13.662 2°55.96 17.0664 0.065787 0.373198 -0.443383
2010-10-21 06:18:59 51°13.662 2°55.96 17.0689 0.065787 0.373192 -0.443383
2010-10-21 06:19:05 51°13.662 2°55.96 17.0671 0.065683 0.372582 -0.478207
2010-10-21 06:19:09 51°13.662 2°55.96 17.0682 0.065787 0.373192 -0.443383
2010-10-21 06:19:14 51°13.662 2°55.96 17.0675 0.065787 0.373192 -0.443383
2010-10-21 06:19:20 51°13.662 2°55.96 17.0686 0.065787 0.373198 -0.478207
2010-10-21 06:19:25 51°13.662 2°55.96 17.0711 0.065787 0.373198 -0.478207
2010-10-21 06:19:30 51°13.662 2°55.96 17.0773 0.065787 0.373192 -0.478207
2010-10-21 06:19:34 51°13.662 2°55.96 17.0749 0.065787 0.373192 -0.443383
2010-10-21 06:19:39 51°13.662 2°55.96 17.075 0.065787 0.373192 -0.478207
2010-10-21 06:19:44 51°13.662 2°55.96 17.0684 0.065787 0.373192 -0.478207
2010-10-21 06:19:50 51°13.662 2°55.96 17.0534 0.065787 0.373192 -0.443383
2010-10-21 06:19:54 51°13.662 2°55.96 17.0481 0.065787 0.373198 -0.478207
2010-10-21 06:19:59 51°13.662 2°55.96 17.0617 0.065787 0.373198 -0.443383
2010-10-21 06:20:04 51°13.662 2°55.96 17.0631 0.065787 0.373198 -0.443383
2010-10-21 06:20:10 51°13.662 2°55.96 17.0598 0.065787 0.373198 -0.443383
2010-10-21 06:20:15 51°13.662 2°55.96 17.0623 0.065787 0.373198 -0.443383
2010-10-21 06:20:19 51°13.662 2°55.96 17.0742 0.065787 0.373198 -0.443383
2010-10-21 06:20:24 51°13.662 2°55.96 17.083 0.065787 0.373198 -0.478207
2010-10-21 06:20:29 51°13.662 2°55.96 17.075 0.065787 0.373198 -0.443383
2010-10-21 06:20:35 51°13.662 2°55.96 17.0769 0.065787 0.373198 -0.443383
2010-10-21 06:20:37 51°13.662 2°55.96 17.0746 0.065787 0.373198 -0.443383
2010-10-21 06:20:44 51°13.662 2°55.96 17.0576 0.065787 0.373198 -0.443383
2010-10-21 06:20:50 51°13.662 2°55.96 17.0631 0.065787 0.373205 -0.443383
2010-10-21 06:20:55 51°13.662 2°55.96 17.0638 0.065683 0.372589 -0.443383
2010-10-21 06:20:59 51°13.662 2°55.96 17.0634 0.065787 0.373205 -0.478207
2010-10-21 06:21:04 51°13.662 2°55.96 17.0652 0.065787 0.373205 -0.443383
2010-10-21 06:21:09 51°13.662 2°55.96 17.0481 0.065787 0.373205 -0.443383
2010-10-21 06:21:14 51°13.662 2°55.96 17.0442 0.065787 0.373205 -0.443383
2010-10-21 06:21:19 51°13.662 2°55.96 17.0512 0.065787 0.373205 -0.443383
2010-10-21 06:21:24 51°13.662 2°55.96 17.0652 0.065787 0.373192 -0.478207
2010-10-21 06:21:29 51°13.662 2°55.96 17.0742 0.065787 0.373198 -0.478207
2010-10-21 06:21:34 51°13.662 2°55.96 17.0693 0.065787 0.373198 -0.478207
2010-10-21 06:21:39 51°13.662 2°55.96 17.0801 0.065787 0.373205 -0.478207
2010-10-21 06:21:44 51°13.662 2°55.96 17.0733 0.065787 0.373205 -0.478207
2010-10-21 06:21:49 51°13.662 2°55.96 17.0637 0.065787 0.373198 -0.478207
2010-10-21 06:21:55 51°13.662 2°55.96 17.0744 0.065787 0.373205 -0.443383
2010-10-21 06:21:59 51°13.662 2°55.96 17.0664 0.065787 0.373205 -0.443383
2010-10-21 06:22:04 51°13.662 2°55.961 17.0583 0.065787 0.373198 -0.443383
2010-10-21 06:22:09 51°13.662 2°55.96 17.0575 0.065787 0.373198 -0.478207
2010-10-21 06:22:14 51°13.662 2°55.96 17.0753 0.065787 0.373198 -0.478207
2010-10-21 06:22:19 51°13.662 2°55.96 17.0742 0.065787 0.373192 -0.478207
2010-10-21 06:22:24 51°13.662 2°55.96 17.0779 0.065787 0.373198 -0.478207
2010-10-21 06:22:29 51°13.662 2°55.96 17.084 0.065787 0.373192 -0.443383
2010-10-21 06:22:34 51°13.662 2°55.96 17.081 0.065787 0.373198 -0.443383
2010-10-21 06:22:40 51°13.662 2°55.96 17.0831 0.065787 0.373198 -0.478207
2010-10-21 06:22:45 51°13.662 2°55.96 17.0879 0.065787 0.373198 -0.478207
2010-10-21 06:22:50 51°13.662 2°55.96 17.0979 0.065787 0.373205 -0.443383
2010-10-21 06:22:55 51°13.662 2°55.96 17.113 0.065787 0.373205 -0.443383
2010-10-21 06:23:00 51°13.662 2°55.96 17.1423 0.065787 0.373198 -0.478207
2010-10-21 06:23:04 51°13.662 2°55.96 17.1385 0.065787 0.373205 -0.443383
2010-10-21 06:23:09 51°13.662 2°55.96 17.1076 0.065787 0.373198 -0.443383
2010-10-21 06:23:14 51°13.662 2°55.96 17.1043 0.065787 0.373198 -0.443383
2010-10-21 06:23:19 51°13.662 2°55.96 17.0983 0.065787 0.373205 -0.478207
2010-10-21 06:23:24 51°13.662 2°55.96 17.0793 0.065787 0.373198 -0.478207
2010-10-21 06:23:30 51°13.662 2°55.96 17.0765 0.065787 0.373198 -0.478207
2010-10-21 06:23:35 51°13.662 2°55.96 17.0818 0.065787 0.373198 -0.478207
2010-10-21 06:23:39 51°13.662 2°55.96 17.0818 0.065787 0.373198 -0.443383
2010-10-21 06:23:44 51°13.662 2°55.96 17.097 0.065787 0.373198 -0.443383
2010-10-21 06:23:49 51°13.662 2°55.96 17.0656 0.065787 0.373205 -0.443383
2010-10-21 06:23:53 51°13.662 2°55.96 17.0861 0.065787 0.373205 -0.443383
2010-10-21 06:23:58 51°13.662 2°55.96 17.0766 0.065787 0.373205 -0.443383
2010-10-21 06:24:03 51°13.662 2°55.96 17.0789 0.065787 0.373205 -0.443383
2010-10-21 06:24:09 51°13.662 2°55.96 17.0822 0.065787 0.373211 -0.478207
2010-10-21 06:24:13 51°13.662 2°55.96 17.0685 0.065787 0.373211 -0.478207
2010-10-21 06:24:18 51°13.662 2°55.96 17.0759 0.065787 0.373205 -0.443383
2010-10-21 06:24:24 51°13.662 2°55.96 17.0816 0.065787 0.373205 -0.408559
2010-10-21 06:24:28 51°13.662 2°55.96 17.0808 0.065787 0.373198 -0.443383
2010-10-21 06:24:34 51°13.662 2°55.96 17.0786 0.065787 0.373198 -0.443383
2010-10-21 06:24:38 51°13.662 2°55.96 17.0849 0.065787 0.373198 -0.478207
2010-10-21 06:24:44 51°13.662 2°55.96 17.0847 0.065787 0.373198 -0.478207
2010-10-21 06:24:48 51°13.662 2°55.96 17.0835 0.065787 0.373192 -0.478207
2010-10-21 06:24:53 51°13.662 2°55.96 17.0903 0.065787 0.373198 -0.443383
2010-10-21 06:24:58 51°13.662 2°55.96 17.0901 0.065787 0.373205 -0.443383
2010-10-21 06:25:04 51°13.662 2°55.96 17.0879 0.065787 0.373205 -0.408559
2010-10-21 06:25:08 51°13.662 2°55.96 17.0885 0.065787 0.373198 -0.478207
2010-10-21 06:25:14 51°13.662 2°55.96 17.0858 0.065787 0.373198 -0.478207
2010-10-21 06:25:17 51°13.662 2°55.96 17.0852 0.065787 0.373205 -0.443383
2010-10-21 06:25:23 51°13.662 2°55.96 17.0876 0.065787 0.373205 -0.443383
2010-10-21 06:25:28 51°13.662 2°55.96 17.0911 0.065787 0.373205 -0.443383
2010-10-21 06:25:32 51°13.662 2°55.959 17.0818 0.065787 0.373205 -0.443383
2010-10-21 06:25:37 51°13.662 2°55.959 17.0843 0.065787 0.373205 -0.443383
2010-10-21 06:25:42 51°13.662 2°55.96 17.0758 0.065787 0.373205 -0.443383
2010-10-21 06:25:48 51°13.662 2°55.96 17.0896 0.065787 0.373198 -0.478207
2010-10-21 06:25:52 51°13.662 2°55.959 17.081 0.065787 0.373205 -0.443383
2010-10-21 06:25:57 51°13.662 2°55.959 17.0796 0.065787 0.373205 -0.443383
2010-10-21 06:26:02 51°13.662 2°55.96 17.0793 0.065787 0.373198 -0.478207
2010-10-21 06:26:08 51°13.662 2°55.96 17.0812 0.065787 0.373198 -0.443383
2010-10-21 06:26:14 51°13.662 2°55.96 17.0839 0.065787 0.373198 -0.443383
2010-10-21 06:26:17 51°13.662 2°55.96 17.0841 0.065787 0.373205 -0.408559
2010-10-21 06:26:23 51°13.662 2°55.96 17.0843 0.065787 0.373211 -0.478207
2010-10-21 06:26:28 51°13.662 2°55.96 17.0828 0.065787 0.373211 -0.478207
2010-10-21 06:26:33 51°13.662 2°55.96 17.0756 0.065787 0.373205 -0.478207
2010-10-21 06:26:37 51°13.662 2°55.96 17.0768 0.065787 0.373205 -0.443383
2010-10-21 06:26:42 51°13.662 2°55.96 17.0748 0.065787 0.373205 -0.443383
2010-10-21 06:26:48 51°13.662 2°55.96 17.0699 0.065787 0.373205 -0.443383
2010-10-21 06:26:52 51°13.662 2°55.96 17.0749 0.065787 0.373198 -0.478207
2010-10-21 06:26:58 51°13.662 2°55.96 17.0724 0.065787 0.373205 -0.443383
2010-10-21 06:27:02 51°13.662 2°55.96 17.0663 0.065787 0.373205 -0.478207
2010-10-21 06:27:07 51°13.662 2°55.96 17.0765 0.065787 0.373205 -0.443383
2010-10-21 06:27:12 51°13.662 2°55.96 17.0764 0.065787 0.373205 -0.443383
2010-10-21 06:27:17 51°13.662 2°55.96 17.078 0.065787 0.373205 -0.443383
2010-10-21 06:27:22 51°13.662 2°55.96 17.0767 0.065787 0.373205 -0.443383
2010-10-21 06:27:28 51°13.662 2°55.96 17.0736 0.065787 0.373205 -0.478207
2010-10-21 06:27:33 51°13.662 2°55.96 17.0732 0.065787 0.373205 -0.478207
2010-10-21 06:27:37 51°13.662 2°55.96 17.0741 0.065787 0.373205 -0.443383
2010-10-21 06:27:42 51°13.662 2°55.96 17.0801 0.065787 0.373205 -0.443383
2010-10-21 06:27:47 51°13.662 2°55.96 17.0804 0.065787 0.373205 -0.443383
2010-10-21 06:27:53 51°13.662 2°55.96 17.0816 0.065787 0.373205 -0.443383
2010-10-21 06:27:57 51°13.662 2°55.96 17.0805 0.065787 0.373205 -0.443383
2010-10-21 06:28:02 51°13.662 2°55.96 17.0761 0.065787 0.373205 -0.443383
2010-10-21 06:28:08 51°13.662 2°55.96 17.0659 0.065787 0.373205 -0.443383
2010-10-21 06:28:12 51°13.662 2°55.96 17.073 0.065787 0.373205 -0.443383
2010-10-21 06:28:18 51°13.662 2°55.96 17.0655 0.065787 0.373205 -0.443383
2010-10-21 06:28:22 51°13.662 2°55.96 17.0757 0.065787 0.373205 -0.408559
2010-10-21 06:28:27 51°13.662 2°55.96 17.0668 0.065787 0.373205 -0.478207
2010-10-21 06:28:33 51°13.662 2°55.96 17.0706 0.065787 0.373211 -0.443383
2010-10-21 06:28:37 51°13.662 2°55.96 17.0665 0.065787 0.373211 -0.443383
2010-10-21 06:28:42 51°13.662 2°55.96 17.0737 0.065787 0.373211 -0.443383
2010-10-21 06:28:47 51°13.662 2°55.96 17.065 0.065787 0.373205 -0.443383
2010-10-21 06:28:52 51°13.662 2°55.96 17.0687 0.065787 0.373205 -0.443383
2010-10-21 06:28:57 51°13.662 2°55.96 17.0652 0.065787 0.373205 -0.443383
2010-10-21 06:29:02 51°13.662 2°55.96 17.0712 0.065787 0.373205 -0.478207
2010-10-21 06:29:07 51°13.662 2°55.96 17.0753 0.065787 0.373205 -0.478207
2010-10-21 06:29:12 51°13.662 2°55.96 17.077 0.065787 0.373205 -0.478207
2010-10-21 06:29:17 51°13.662 2°55.96 17.0778 0.065787 0.373205 -0.478207
2010-10-21 06:29:22 51°13.662 2°55.96 17.0707 0.065787 0.373211 -0.478207
2010-10-21 06:29:26 51°13.662 2°55.959 17.0709 0.065787 0.373205 -0.443383
2010-10-21 06:29:31 51°13.662 2°55.959 17.0734 0.065787 0.373211 -0.478207
2010-10-21 06:29:36 51°13.662 2°55.959 17.0681 0.065787 0.373211 -0.443383
2010-10-21 06:29:42 51°13.662 2°55.96 17.0692 0.065787 0.373211 -0.443383
2010-10-21 06:29:46 51°13.662 2°55.96 17.0759 0.065787 0.373211 -0.443383
2010-10-21 06:29:51 51°13.662 2°55.96 17.0733 0.065787 0.373211 -0.443383
2010-10-21 06:29:56 51°13.662 2°55.96 17.0742 0.065787 0.373205 -0.478207
2010-10-21 06:30:02 51°13.662 2°55.96 17.0684 0.065787 0.373211 -0.478207
2010-10-21 06:30:06 51°13.662 2°55.96 17.0753 0.065787 0.373211 -0.443383
2010-10-21 06:30:11 51°13.662 2°55.96 17.0653 0.065787 0.373211 -0.443383
2010-10-21 06:30:16 51°13.662 2°55.96 17.0486 0.065787 0.373217 -0.478207
2010-10-21 06:30:22 51°13.662 2°55.96 17.0498 0.065787 0.373211 -0.443383
2010-10-21 06:30:26 51°13.662 2°55.96 17.0484 0.065787 0.373211 -0.443383
2010-10-21 06:30:32 51°13.662 2°55.96 17.0528 0.065787 0.373211 -0.443383
2010-10-21 06:30:37 51°13.662 2°55.96 17.0755 0.065787 0.373211 -0.443383
2010-10-21 06:30:42 51°13.662 2°55.96 17.0762 0.065787 0.373211 -0.443383
2010-10-21 06:30:46 51°13.662 2°55.96 17.0687 0.065787 0.373217 -0.408559
2010-10-21 06:30:51 51°13.662 2°55.96 17.0679 0.065787 0.373217 -0.443383
2010-10-21 06:30:56 51°13.662 2°55.96 17.0761 0.065787 0.373217 -0.478207
2010-10-21 06:31:02 51°13.662 2°55.96 17.0566 0.065787 0.373217 -0.443383
2010-10-21 06:31:06 51°13.662 2°55.96 17.0587 0.065787 0.373224 -0.478207
2010-10-21 06:31:12 51°13.662 2°55.96 17.0625 0.065787 0.373224 -0.478207
2010-10-21 06:31:17 51°13.662 2°55.96 17.0645 0.065787 0.373217 -0.443383
2010-10-21 06:31:22 51°13.663 2°55.96 17.0667 0.065787 0.373217 -0.443383
2010-10-21 06:31:26 51°13.662 2°55.96 17.0677 0.065787 0.373224 -0.443383
2010-10-21 06:31:32 51°13.662 2°55.96 17.0703 0.065787 0.373224 -0.443383
2010-10-21 06:31:37 51°13.662 2°55.96 17.0732 0.065787 0.373224 -0.443383
2010-10-21 06:31:42 51°13.662 2°55.96 17.0726 0.065787 0.373224 -0.443383
2010-10-21 06:31:46 51°13.662 2°55.96 17.0778 0.065787 0.373224 -0.443383
2010-10-21 06:31:52 51°13.662 2°55.96 17.0673 0.065787 0.373224 -0.443383
2010-10-21 06:31:57 51°13.662 2°55.96 17.0692 0.065787 0.373224 -0.443383
2010-10-21 06:32:02 51°13.662 2°55.96 17.0708 0.065787 0.373224 -0.478207
2010-10-21 06:32:06 51°13.662 2°55.96 17.0733 0.065787 0.37323 -0.443383
2010-10-21 06:32:12 51°13.662 2°55.96 17.0756 0.065787 0.37323 -0.443383
2010-10-21 06:32:17 51°13.662 2°55.96 17.0793 0.065787 0.373236 -0.443383
2010-10-21 06:32:22 51°13.662 2°55.96 17.083 0.065787 0.373224 -0.443383
2010-10-21 06:32:26 51°13.662 2°55.96 17.0784 0.065787 0.37323 -0.478207
2010-10-21 06:32:32 51°13.662 2°55.96 17.0739 0.065787 0.373236 -0.443383
2010-10-21 06:32:37 51°13.662 2°55.96 17.0703 0.065787 0.373236 -0.443383
2010-10-21 06:32:42 51°13.662 2°55.96 17.0691 0.065787 0.373236 -0.443383
2010-10-21 06:32:46 51°13.662 2°55.96 17.0681 0.065787 0.37323 -0.443383
2010-10-21 06:32:51 51°13.662 2°55.96 17.0659 0.065787 0.373236 -0.443383
2010-10-21 06:32:56 51°13.662 2°55.96 17.0648 0.065787 0.373236 -0.443383
2010-10-21 06:33:02 51°13.662 2°55.96 17.0721 0.065787 0.373236 -0.478207
2010-10-21 06:33:06 51°13.662 2°55.96 17.0578 0.065787 0.373243 -0.478207
2010-10-21 06:33:12 51°13.662 2°55.96 17.061 0.065787 0.373243 -0.478207
2010-10-21 06:33:16 51°13.662 2°55.96 17.0544 0.065787 0.373243 -0.443383
2010-10-21 06:33:22 51°13.662 2°55.96 17.0478 0.065787 0.373243 -0.478207
2010-10-21 06:33:26 51°13.662 2°55.96 17.064 0.065787 0.373243 -0.408559
2010-10-21 06:33:31 51°13.663 2°55.96 17.0673 0.065787 0.373243 -0.443383
2010-10-21 06:33:37 51°13.663 2°55.96 17.0655 0.065787 0.373243 -0.478207
2010-10-21 06:33:42 51°13.663 2°55.96 17.0655 0.065787 0.373243 -0.478207
2010-10-21 06:33:46 51°13.663 2°55.96 17.0701 0.065787 0.373243 -0.478207
2010-10-21 06:33:51 51°13.663 2°55.96 17.0662 0.065787 0.373249 -0.408559
2010-10-21 06:33:57 51°13.663 2°55.96 17.067 0.065787 0.373249 -0.443383
2010-10-21 06:34:02 51°13.663 2°55.96 17.065 0.065787 0.373249 -0.443383
2010-10-21 06:34:06 51°13.663 2°55.96 17.06 0.065787 0.373249 -0.443383
2010-10-21 06:34:12 51°13.662 2°55.961 17.0464 0.065787 0.373249 -0.443383
2010-10-21 06:34:16 51°13.662 2°55.961 17.0539 0.065787 0.373249 -0.478207
2010-10-21 06:34:22 51°13.662 2°55.961 17.0535 0.065787 0.373255 -0.443383
2010-10-21 06:34:26 51°13.662 2°55.961 17.0303 0.065787 0.373249 -0.478207
2010-10-21 06:34:32 51°13.662 2°55.961 17.0329 0.065787 0.373255 -0.478207
2010-10-21 06:34:37 51°13.662 2°55.962 17.0379 0.065787 0.373249 -0.408559
2010-10-21 06:34:42 51°13.662 2°55.962 17.0477 0.065787 0.373249 -0.408559
2010-10-21 06:34:46 51°13.662 2°55.962 17.0568 0.065787 0.373255 -0.443383
2010-10-21 06:34:51 51°13.662 2°55.962 17.0573 0.065787 0.373255 -0.443383
2010-10-21 06:34:56 51°13.662 2°55.962 17.0594 0.065787 0.373261 -0.478207
2010-10-21 06:35:02 51°13.662 2°55.963 17.0611 0.065787 0.373261 -0.443383
2010-10-21 06:35:06 51°13.662 2°55.963 17.0632 0.065787 0.373261 -0.443383
2010-10-21 06:35:11 51°13.662 2°55.962 17.0643 0.065787 0.373261 -0.443383
2010-10-21 06:35:16 51°13.662 2°55.962 17.0664 0.065787 0.373261 -0.443383
2010-10-21 06:35:22 51°13.662 2°55.962 17.0653 0.065787 0.373261 -0.478207
2010-10-21 06:35:26 51°13.662 2°55.962 17.0618 0.065787 0.373255 -0.478207
2010-10-21 06:35:31 51°13.662 2°55.962 17.0663 0.065787 0.373268 -0.478207
2010-10-21 06:35:36 51°13.662 2°55.962 17.0665 0.065787 0.373261 -0.443383
2010-10-21 06:35:42 51°13.662 2°55.962 17.0668 0.065787 0.373261 -0.443383
2010-10-21 06:35:46 51°13.662 2°55.962 17.0725 0.065787 0.373261 -0.443383
2010-10-21 06:35:51 51°13.662 2°55.962 17.0645 0.065787 0.373268 -0.443383
2010-10-21 06:35:56 51°13.663 2°55.961 17.0647 0.065787 0.373274 -0.478207
2010-10-21 06:36:02 51°13.663 2°55.961 17.0687 0.065787 0.373274 -0.443383
2010-10-21 06:36:06 51°13.663 2°55.961 17.0649 0.065787 0.373274 -0.443383
2010-10-21 06:36:12 51°13.663 2°55.961 17.0681 0.065787 0.373274 -0.443383
2010-10-21 06:36:16 51°13.663 2°55.961 17.068 0.065787 0.373268 -0.443383
2010-10-21 06:36:22 51°13.663 2°55.961 17.0611 0.065787 0.373274 -0.443383
2010-10-21 06:36:26 51°13.663 2°55.961 17.047 0.065787 0.373274 -0.478207
2010-10-21 06:36:32 51°13.663 2°55.96 17.0508 0.065787 0.373274 -0.478207
2010-10-21 06:36:36 51°13.663 2°55.96 17.0532 0.065787 0.373274 -0.443383
2010-10-21 06:36:42 51°13.663 2°55.96 17.0596 0.065787 0.373274 -0.443383
2010-10-21 06:36:46 51°13.664 2°55.96 17.0546 0.065787 0.37328 -0.443383
2010-10-21 06:36:51 51°13.663 2°55.96 17.06 0.065787 0.373274 -0.443383
2010-10-21 06:36:56 51°13.663 2°55.961 17.0591 0.065787 0.37328 -0.478207
2010-10-21 06:37:02 51°13.663 2°55.961 17.0591 0.065787 0.37328 -0.478207
2010-10-21 06:37:06 51°13.663 2°55.961 17.0556 0.065787 0.37328 -0.478207
2010-10-21 06:37:12 51°13.663 2°55.961 17.0503 0.065787 0.37328 -0.478207
2010-10-21 06:37:17 51°13.663 2°55.961 17.0571 0.065787 0.373287 -0.478207
2010-10-21 06:37:22 51°13.663 2°55.961 17.0633 0.065787 0.37328 -0.443383
2010-10-21 06:37:26 51°13.663 2°55.961 17.0645 0.065787 0.373287 -0.443383
2010-10-21 06:37:32 51°13.663 2°55.961 17.0653 0.065787 0.373287 -0.443383
2010-10-21 06:37:37 51°13.663 2°55.961 17.0615 0.065787 0.373287 -0.478207
2010-10-21 06:37:42 51°13.662 2°55.961 17.0497 0.065787 0.373287 -0.478207
2010-10-21 06:37:46 51°13.662 2°55.961 17.047 0.065787 0.373287 -0.478207
2010-10-21 06:37:51 51°13.662 2°55.961 17.0433 0.065787 0.373287 -0.443383
2010-10-21 06:37:56 51°13.662 2°55.961 17.0443 0.065787 0.373287 -0.443383
2010-10-21 06:38:02 51°13.662 2°55.961 17.0548 0.065787 0.373293 -0.443383
2010-10-21 06:38:06 51°13.662 2°55.961 17.0607 0.065787 0.373293 -0.478207
2010-10-21 06:38:11 51°13.662 2°55.961 17.058 0.065787 0.373293 -0.478207
2010-10-21 06:38:16 51°13.663 2°55.961 17.06 0.065787 0.373299 -0.478207
2010-10-21 06:38:22 51°13.663 2°55.961 17.0529 0.065787 0.373293 -0.478207
2010-10-21 06:38:26 51°13.663 2°55.961 17.0516 0.065787 0.373293 -0.443383
2010-10-21 06:38:32 51°13.663 2°55.96 17.0525 0.065787 0.373293 -0.443383
2010-10-21 06:38:36 51°13.663 2°55.96 17.0596 0.065787 0.373299 -0.478207
2010-10-21 06:38:42 51°13.663 2°55.96 17.062 0.065787 0.373299 -0.478207
2010-10-21 06:38:46 51°13.663 2°55.961 17.0562 0.065787 0.373299 -0.443383
2010-10-21 06:38:52 51°13.662 2°55.961 17.0567 0.065787 0.373299 -0.478207
2010-10-21 06:38:57 51°13.662 2°55.961 17.0577 0.065683 0.37269 -0.478207
2010-10-21 06:39:02 51°13.662 2°55.961 17.0588 0.065787 0.373306 -0.443383
2010-10-21 06:39:06 51°13.662 2°55.962 17.0605 0.065787 0.373306 -0.443383
2010-10-21 06:39:11 51°13.662 2°55.962 17.0595 0.065787 0.373306 -0.443383
2010-10-21 06:39:17 51°13.661 2°55.962 17.06 0.065787 0.373306 -0.443383
2010-10-21 06:39:22 51°13.661 2°55.962 17.0547 0.065787 0.373306 -0.443383
2010-10-21 06:39:26 51°13.662 2°55.962 17.0558 0.065787 0.373306 -0.443383
2010-10-21 06:39:31 51°13.662 2°55.962 17.0581 0.065787 0.373312 -0.443383
2010-10-21 06:39:36 51°13.662 2°55.962 17.0564 0.065787 0.373312 -0.443383
2010-10-21 06:39:42 51°13.661 2°55.962 17.0588 0.065787 0.373312 -0.443383
2010-10-21 06:39:46 51°13.662 2°55.962 17.0605 0.065787 0.373312 -0.443383
2010-10-21 06:39:51 51°13.662 2°55.962 17.0587 0.065787 0.373318 -0.443383
2010-10-21 06:39:56 51°13.662 2°55.961 17.0555 0.065787 0.373312 -0.443383
2010-10-21 06:40:02 51°13.662 2°55.961 17.0587 0.065787 0.373318 -0.478207
2010-10-21 06:40:06 51°13.663 2°55.961 17.0639 0.065787 0.373318 -0.478207
2010-10-21 06:40:11 51°13.663 2°55.961 17.0659 0.065787 0.373318 -0.478207
2010-10-21 06:40:16 51°13.663 2°55.96 17.0619 0.065787 0.373318 -0.443383
2010-10-21 06:40:22 51°13.663 2°55.96 17.0623 0.065787 0.373325 -0.443383
2010-10-21 06:40:26 51°13.663 2°55.96 17.0599 0.065787 0.373325 -0.478207
2010-10-21 06:40:32 51°13.663 2°55.961 17.0682 0.065787 0.373331 -0.443383
2010-10-21 06:40:36 51°13.662 2°55.961 17.071 0.065787 0.373325 -0.478207
2010-10-21 06:40:42 51°13.662 2°55.961 17.073 0.065787 0.373325 -0.478207
2010-10-21 06:40:46 51°13.662 2°55.961 17.0679 0.065787 0.373325 -0.478207
2010-10-21 06:40:52 51°13.662 2°55.961 17.0691 0.065787 0.373331 -0.443383
2010-10-21 06:40:56 51°13.662 2°55.961 17.0674 0.065787 0.373331 -0.443383
2010-10-21 06:41:02 51°13.662 2°55.961 17.0644 0.065787 0.373337 -0.443383
2010-10-21 06:41:06 51°13.662 2°55.961 17.0732 0.065787 0.373344 -0.478207
2010-10-21 06:41:12 51°13.662 2°55.961 17.0769 0.065787 0.373344 -0.478207
2010-10-21 06:41:17 51°13.662 2°55.962 17.0766 0.065787 0.373344 -0.443383
2010-10-21 06:41:22 51°13.662 2°55.962 17.0695 0.065787 0.373337 -0.443383
2010-10-21 06:41:26 51°13.662 2°55.962 17.0655 0.065787 0.373344 -0.443383
2010-10-21 06:41:31 51°13.662 2°55.962 17.0803 0.065683 0.372734 -0.443383
2010-10-21 06:41:36 51°13.662 2°55.962 17.0687 0.065787 0.373344 -0.478207
2010-10-21 06:41:42 51°13.662 2°55.961 17.0665 0.065787 0.373344 -0.478207
2010-10-21 06:41:46 51°13.662 2°55.961 17.077 0.065787 0.373344 -0.443383
2010-10-21 06:41:51 51°13.662 2°55.961 17.0655 0.065787 0.37335 -0.478207
2010-10-21 06:41:56 51°13.662 2°55.961 17.0742 0.065787 0.37335 -0.443383
2010-10-21 06:42:02 51°13.662 2°55.961 17.0751 0.065787 0.37335 -0.478207
2010-10-21 06:42:06 51°13.662 2°55.961 17.0798 0.065787 0.37335 -0.443383
2010-10-21 06:42:11 51°13.662 2°55.961 17.0788 0.065787 0.37335 -0.443383
2010-10-21 06:42:16 51°13.662 2°55.961 17.0795 0.065787 0.373363 -0.443383
2010-10-21 06:42:22 51°13.662 2°55.961 17.076 0.065787 0.373363 -0.443383
2010-10-21 06:42:26 51°13.662 2°55.961 17.0834 0.065787 0.373363 -0.478207
2010-10-21 06:42:31 51°13.662 2°55.961 17.0702 0.065683 0.372759 -0.443383
2010-10-21 06:42:36 51°13.662 2°55.961 17.0846 0.065787 0.373369 -0.443383
2010-10-21 06:42:42 51°13.662 2°55.961 17.079 0.065787 0.373369 -0.443383
2010-10-21 06:42:46 51°13.662 2°55.961 17.0765 0.065683 0.372765 -0.443383
2010-10-21 06:42:52 51°13.662 2°55.961 17.0762 0.065787 0.373375 -0.443383
2010-10-21 06:42:57 51°13.662 2°55.961 17.0636 0.065787 0.373375 -0.443383
2010-10-21 06:43:02 51°13.662 2°55.961 17.0697 0.065787 0.373375 -0.443383
2010-10-21 06:43:06 51°13.662 2°55.961 17.0716 0.065787 0.373375 -0.478207
2010-10-21 06:43:12 51°13.662 2°55.961 17.0613 0.065787 0.373375 -0.478207
2010-10-21 06:43:16 51°13.662 2°55.961 17.0589 0.065787 0.373382 -0.478207
2010-10-21 06:43:22 51°13.662 2°55.961 17.0658 0.065683 0.372772 -0.443383
2010-10-21 06:43:26 51°13.662 2°55.961 17.0602 0.065787 0.373388 -0.443383
2010-10-21 06:43:31 51°13.662 2°55.961 17.0622 0.065683 0.372784 -0.443383
2010-10-21 06:43:36 51°13.662 2°55.961 17.0705 0.065683 0.372791 -0.443383
2010-10-21 06:43:42 51°13.662 2°55.961 17.0702 0.065683 0.372791 -0.443383
2010-10-21 06:43:46 51°13.662 2°55.96 17.063 0.065683 0.372791 -0.443383
2010-10-21 06:43:51 51°13.662 2°55.96 17.0739 0.065683 0.372791 -0.443383
2010-10-21 06:43:56 51°13.662 2°55.96 17.0707 0.065787 0.373401 -0.443383
2010-10-21 06:44:02 51°13.662 2°55.96 17.0788 0.065787 0.373401 -0.443383
2010-10-21 06:44:06 51°13.662 2°55.96 17.0803 0.065683 0.372791 -0.443383
2010-10-21 06:44:11 51°13.662 2°55.96 17.0806 0.065683 0.372791 -0.443383
2010-10-21 06:44:16 51°13.662 2°55.961 17.0805 0.065683 0.372797 -0.478207
2010-10-21 06:44:22 51°13.662 2°55.961 17.0778 0.065683 0.372797 -0.478207
2010-10-21 06:44:26 51°13.662 2°55.961 17.0805 0.065683 0.372803 -0.443383
2010-10-21 06:44:31 51°13.662 2°55.961 17.0817 0.065683 0.372803 -0.408559
2010-10-21 06:44:36 51°13.662 2°55.961 17.0805 0.065683 0.37281 -0.443383
2010-10-21 06:44:42 51°13.662 2°55.961 17.0769 0.065683 0.37281 -0.443383
2010-10-21 06:44:46 51°13.662 2°55.961 17.082 0.065683 0.372816 -0.443383
2010-10-21 06:44:52 51°13.662 2°55.961 17.0767 0.065683 0.37281 -0.443383
2010-10-21 06:44:56 51°13.662 2°55.961 17.0753 0.065683 0.372822 -0.443383
2010-10-21 06:45:02 51°13.662 2°55.961 17.0819 0.065683 0.372822 -0.443383
2010-10-21 06:45:06 51°13.662 2°55.961 17.0919 0.065683 0.372822 -0.443383
2010-10-21 06:45:12 51°13.662 2°55.961 17.0917 0.065683 0.372822 -0.443383
2010-10-21 06:45:17 51°13.662 2°55.96 17.0879 0.065683 0.372828 -0.443383
2010-10-21 06:45:22 51°13.662 2°55.96 17.0851 0.065683 0.372828 -0.443383
2010-10-21 06:45:26 51°13.662 2°55.96 17.084 0.065683 0.372828 -0.443383
2010-10-21 06:45:32 51°13.662 2°55.96 17.0859 0.065683 0.372828 -0.443383
2010-10-21 06:45:36 51°13.662 2°55.96 17.092 0.065683 0.372828 -0.478207
2010-10-21 06:45:42 51°13.662 2°55.96 17.0991 0.065683 0.372828 -0.478207
2010-10-21 06:45:46 51°13.662 2°55.96 17.0885 0.065683 0.372835 -0.443383
2010-10-21 06:45:52 51°13.662 2°55.96 17.0922 0.065683 0.372841 -0.408559
2010-10-21 06:45:56 51°13.662 2°55.96 17.0865 0.065683 0.372841 -0.408559
2010-10-21 06:46:02 51°13.662 2°55.96 17.081 0.065683 0.372847 -0.478207
2010-10-21 06:46:06 51°13.662 2°55.96 17.0711 0.065683 0.372854 -0.443383
2010-10-21 06:46:11 51°13.662 2°55.96 17.0721 0.065683 0.372854 -0.443383
2010-10-21 06:46:16 51°13.662 2°55.96 17.0929 0.065683 0.372854 -0.443383
2010-10-21 06:46:22 51°13.662 2°55.96 17.0958 0.065683 0.372854 -0.478207
2010-10-21 06:46:26 51°13.662 2°55.96 17.0869 0.065683 0.372854 -0.408559
2010-10-21 06:46:31 51°13.662 2°55.96 17.0907 0.065683 0.372866 -0.443383
2010-10-21 06:46:36 51°13.662 2°55.96 17.088 0.065683 0.37286 -0.443383
2010-10-21 06:46:42 51°13.662 2°55.96 17.0862 0.065683 0.37286 -0.443383
2010-10-21 06:46:47 51°13.662 2°55.96 17.0891 0.065683 0.372873 -0.478207
2010-10-21 06:46:52 51°13.662 2°55.96 17.0871 0.065683 0.372866 -0.478207
2010-10-21 06:46:56 51°13.662 2°55.96 17.0858 0.065683 0.372873 -0.443383
2010-10-21 06:47:02 51°13.662 2°55.96 17.0867 0.065683 0.372873 -0.478207
2010-10-21 06:47:06 51°13.663 2°55.959 17.0624 0.065683 0.372873 -0.443383
2010-10-21 06:47:11 51°13.663 2°55.959 17.07 0.065683 0.372873 -0.443383
2010-10-21 06:47:17 51°13.663 2°55.959 17.0666 0.065683 0.372879 -0.443383
2010-10-21 06:47:22 51°13.663 2°55.959 17.0712 0.065683 0.372879 -0.443383
2010-10-21 06:47:26 51°13.663 2°55.959 17.082 0.065683 0.372885 -0.443383
2010-10-21 06:47:31 51°13.663 2°55.959 17.085 0.065683 0.372892 -0.478207
2010-10-21 06:47:36 51°13.663 2°55.959 17.0836 0.065683 0.372898 -0.478207
2010-10-21 06:47:42 51°13.663 2°55.96 17.0828 0.065683 0.372898 -0.478207
2010-10-21 06:47:46 51°13.663 2°55.96 17.0759 0.065683 0.372898 -0.443383
2010-10-21 06:47:52 51°13.663 2°55.96 17.0711 0.065683 0.372911 -0.443383
2010-10-21 06:47:56 51°13.663 2°55.96 17.0895 0.065683 0.372898 -0.443383
2010-10-21 06:48:02 51°13.663 2°55.96 17.0819 0.065683 0.372904 -0.478207
2010-10-21 06:48:06 51°13.662 2°55.96 17.0871 0.065683 0.372911 -0.443383
2010-10-21 06:48:11 51°13.663 2°55.96 17.0859 0.065683 0.372911 -0.443383
2010-10-21 06:48:16 51°13.662 2°55.96 17.0897 0.065683 0.372911 -0.478207
2010-10-21 06:48:22 51°13.662 2°55.96 17.0898 0.065683 0.372911 -0.443383
2010-10-21 06:48:26 51°13.662 2°55.959 17.0864 0.065683 0.372917 -0.443383
2010-10-21 06:48:31 51°13.663 2°55.959 17.0968 0.065683 0.372923 -0.443383
2010-10-21 06:48:36 51°13.662 2°55.959 17.0906 0.065683 0.37293 -0.443383
2010-10-21 06:48:42 51°13.662 2°55.96 17.0762 0.065683 0.37293 -0.443383
2010-10-21 06:48:46 51°13.661 2°55.96 17.0656 0.065683 0.37293 -0.443383
2010-10-21 06:48:51 51°13.661 2°55.96 17.0681 0.065683 0.372936 -0.478207
2010-10-21 06:48:57 51°13.661 2°55.96 17.078 0.065683 0.372942 -0.443383
2010-10-21 06:49:02 51°13.661 2°55.96 17.0822 0.065683 0.372942 -0.478207
2010-10-21 06:49:06 51°13.661 2°55.96 17.082 0.065683 0.372942 -0.443383
2010-10-21 06:49:11 51°13.662 2°55.96 17.0844 0.065683 0.372942 -0.443383
2010-10-21 06:49:17 51°13.662 2°55.96 17.0838 0.065683 0.372949 -0.478207
2010-10-21 06:49:22 51°13.662 2°55.96 17.0859 0.065683 0.372949 -0.443383
2010-10-21 06:49:26 51°13.662 2°55.96 17.0858 0.065683 0.372949 -0.443383
2010-10-21 06:49:32 51°13.662 2°55.96 17.0873 0.065683 0.372949 -0.478207
2010-10-21 06:49:37 51°13.662 2°55.96 17.088 0.065683 0.372949 -0.478207
2010-10-21 06:49:42 51°13.662 2°55.96 17.089 0.065683 0.372949 -0.478207
2010-10-21 06:49:46 51°13.662 2°55.96 17.0886 0.065683 0.372955 -0.443383
2010-10-21 06:49:52 51°13.662 2°55.96 17.0872 0.065683 0.372968 -0.478207
2010-10-21 06:49:57 51°13.662 2°55.96 17.0869 0.065683 0.372968 -0.443383
2010-10-21 06:50:02 51°13.662 2°55.96 17.0878 0.065683 0.372974 -0.478207
2010-10-21 06:50:06 51°13.662 2°55.96 17.0884 0.065683 0.372968 -0.443383
2010-10-21 06:50:11 51°13.662 2°55.96 17.0895 0.065683 0.372968 -0.443383
2010-10-21 06:50:16 51°13.663 2°55.96 17.0898 0.065683 0.372974 -0.443383
2010-10-21 06:50:22 51°13.663 2°55.96 17.0869 0.065683 0.37298 -0.408559
2010-10-21 06:50:26 51°13.663 2°55.96 17.083 0.065683 0.37298 -0.443383
2010-10-21 06:50:30 51°13.662 2°55.96 17.0857 0.065683 0.37298 -0.478207
2010-10-21 06:50:37 51°13.662 2°55.96 17.0852 0.065683 0.37298 -0.443383
2010-10-21 06:50:42 51°13.662 2°55.96 17.0862 0.065683 0.37298 -0.443383
2010-10-21 06:50:46 51°13.662 2°55.96 17.0865 0.065683 0.372993 -0.443383
2010-10-21 06:50:51 51°13.662 2°55.96 17.0865 0.065683 0.372987 -0.443383
2010-10-21 06:50:56 51°13.663 2°55.96 17.0883 0.065683 0.372993 -0.478207
2010-10-21 06:51:02 51°13.663 2°55.96 17.0898 0.065683 0.372999 -0.408559
2010-10-21 06:51:06 51°13.663 2°55.96 17.0886 0.065683 0.372999 -0.443383
2010-10-21 06:51:11 51°13.663 2°55.96 17.0856 0.065683 0.372999 -0.443383
2010-10-21 06:51:16 51°13.663 2°55.96 17.0843 0.065683 0.372999 -0.443383
2010-10-21 06:51:22 51°13.663 2°55.96 17.0863 0.065683 0.373005 -0.443383
2010-10-21 06:51:26 51°13.663 2°55.96 17.0878 0.065683 0.373012 -0.478207
2010-10-21 06:51:31 51°13.663 2°55.96 17.0875 0.065683 0.373005 -0.408559
2010-10-21 06:51:37 51°13.663 2°55.96 17.0859 0.065683 0.373012 -0.443383
2010-10-21 06:51:42 51°13.663 2°55.96 17.0884 0.065683 0.373012 -0.443383
2010-10-21 06:51:46 51°13.663 2°55.96 17.0869 0.065683 0.373024 -0.443383
2010-10-21 06:51:51 51°13.663 2°55.96 17.0881 0.065683 0.373018 -0.443383
2010-10-21 06:51:56 51°13.663 2°55.96 17.0899 0.065683 0.373018 -0.478207
2010-10-21 06:52:02 51°13.663 2°55.96 17.0909 0.065683 0.373024 -0.478207
2010-10-21 06:52:06 51°13.663 2°55.96 17.0887 0.065683 0.373024 -0.443383
2010-10-21 06:52:12 51°13.663 2°55.96 17.0878 0.065683 0.373024 -0.443383
2010-10-21 06:52:16 51°13.663 2°55.96 17.0867 0.065683 0.373031 -0.478207
2010-10-21 06:52:22 51°13.663 2°55.96 17.0894 0.065683 0.373031 -0.443383
2010-10-21 06:52:26 51°13.663 2°55.96 17.0909 0.065683 0.373031 -0.443383
2010-10-21 06:52:32 51°13.663 2°55.96 17.0906 0.065683 0.373043 -0.443383
2010-10-21 06:52:37 51°13.663 2°55.96 17.0915 0.065683 0.373037 -0.443383
2010-10-21 06:52:42 51°13.663 2°55.96 17.0858 0.065683 0.373037 -0.443383
2010-10-21 06:52:46 51°13.663 2°55.96 17.0921 0.065683 0.373037 -0.408559
2010-10-21 06:52:51 51°13.663 2°55.96 17.0955 0.065683 0.373043 -0.478207
2010-10-21 06:52:57 51°13.663 2°55.96 17.0925 0.065683 0.373043 -0.478207
2010-10-21 06:53:02 51°13.663 2°55.96 17.092 0.065683 0.37305 -0.478207
2010-10-21 06:53:06 51°13.663 2°55.96 17.0909 0.065683 0.37305 -0.443383
2010-10-21 06:53:11 51°13.663 2°55.96 17.0924 0.065683 0.37305 -0.443383
2010-10-21 06:53:16 51°13.663 2°55.96 17.0902 0.065683 0.373056 -0.443383
2010-10-21 06:53:22 51°13.663 2°55.96 17.0927 0.065683 0.373056 -0.478207
2010-10-21 06:53:26 51°13.663 2°55.96 17.0964 0.065683 0.373056 -0.443383
2010-10-21 06:53:32 51°13.663 2°55.96 17.0942 0.065683 0.373062 -0.478207
2010-10-21 06:53:37 51°13.663 2°55.96 17.0942 0.065683 0.373069 -0.443383
2010-10-21 06:53:42 51°13.663 2°55.96 17.09 0.065683 0.373069 -0.443383
2010-10-21 06:53:47 51°13.663 2°55.96 17.0951 0.065683 0.373069 -0.443383
2010-10-21 06:53:52 51°13.663 2°55.96 17.0945 0.065683 0.373069 -0.478207
2010-10-21 06:53:57 51°13.663 2°55.96 17.092 0.065683 0.373069 -0.443383
2010-10-21 06:54:02 51°13.663 2°55.96 17.0939 0.065683 0.373075 -0.478207
2010-10-21 06:54:06 51°13.663 2°55.96 17.0953 0.065683 0.373075 -0.443383
2010-10-21 06:54:11 51°13.663 2°55.96 17.0964 0.065683 0.373075 -0.443383
2010-10-21 06:54:16 51°13.663 2°55.96 17.0976 0.065683 0.373081 -0.443383
2010-10-21 06:54:22 51°13.663 2°55.96 17.0944 0.065683 0.373088 -0.443383
2010-10-21 06:54:26 51°13.663 2°55.96 17.0978 0.065683 0.373088 -0.443383
2010-10-21 06:54:32 51°13.663 2°55.96 17.0973 0.065683 0.373094 -0.408559
2010-10-21 06:54:37 51°13.663 2°55.96 17.099 0.065683 0.373094 -0.443383
2010-10-21 06:54:42 51°13.663 2°55.96 17.1011 0.065683 0.373094 -0.443383
2010-10-21 06:54:46 51°13.663 2°55.96 17.1019 0.065683 0.373094 -0.478207
2010-10-21 06:54:52 51°13.663 2°55.96 17.1019 0.065683 0.373094 -0.478207
2010-10-21 06:54:56 51°13.663 2°55.96 17.1015 0.065579 0.37249 -0.478207
2010-10-21 06:55:02 51°13.663 2°55.96 17.0992 0.065683 0.3731 -0.478207
2010-10-21 06:55:06 51°13.663 2°55.96 17.1053 0.065683 0.3731 -0.478207
2010-10-21 06:55:11 51°13.663 2°55.96 17.1063 0.065683 0.3731 -0.478207
2010-10-21 06:55:16 51°13.663 2°55.96 17.1089 0.065683 0.373107 -0.443383
2010-10-21 06:55:22 51°13.663 2°55.96 17.1105 0.065579 0.372503 -0.443383
2010-10-21 06:55:26 51°13.663 2°55.96 17.1068 0.065579 0.372503 -0.443383
2010-10-21 06:55:32 51°13.663 2°55.96 17.1012 0.065683 0.373113 -0.478207
2010-10-21 06:55:37 51°13.663 2°55.96 17.0999 0.065683 0.373119 -0.443383
2010-10-21 06:55:42 51°13.663 2°55.96 17.0981 0.065683 0.373119 -0.443383
2010-10-21 06:55:46 51°13.662 2°55.96 17.1016 0.065579 0.372515 -0.443383
2010-10-21 06:55:52 51°13.662 2°55.96 17.1091 0.065579 0.372515 -0.478207
2010-10-21 06:55:57 51°13.662 2°55.96 17.1095 0.065683 0.373126 -0.443383
2010-10-21 06:56:02 51°13.661 2°55.961 17.103 0.065683 0.373132 -0.408559
2010-10-21 06:56:07 51°13.661 2°55.961 17.1074 0.065579 0.372515 -0.443383
2010-10-21 06:56:12 51°13.661 2°55.961 17.1089 0.065579 0.372515 -0.443383
2010-10-21 06:56:17 51°13.66 2°55.96 17.1111 0.065579 0.372528 -0.478207
2010-10-21 06:56:22 51°13.661 2°55.96 17.1086 0.065579 0.372528 -0.443383
2010-10-21 06:56:26 51°13.661 2°55.96 17.1066 0.065579 0.372534 -0.443383
2010-10-21 06:56:32 51°13.661 2°55.96 17.1049 0.065579 0.372534 -0.478207
2010-10-21 06:56:36 51°13.661 2°55.961 17.1085 0.065579 0.372534 -0.478207
2010-10-21 06:56:42 51°13.661 2°55.96 17.1098 0.065579 0.372534 -0.478207
2010-10-21 06:56:46 51°13.66 2°55.961 17.108 0.065683 0.373151 -0.478207
2010-10-21 06:56:52 51°13.659 2°55.961 17.1053 0.065579 0.37254 -0.443383
2010-10-21 06:56:57 51°13.66 2°55.961 17.1082 0.065579 0.37254 -0.443383
2010-10-21 06:57:02 51°13.66 2°55.961 17.1072 0.065579 0.372547 -0.443383
2010-10-21 06:57:06 51°13.66 2°55.961 17.1059 0.065579 0.372547 -0.443383
2010-10-21 06:57:12 51°13.66 2°55.959 17.1057 0.065579 0.372547 -0.443383
2010-10-21 06:57:17 51°13.66 2°55.958 17.101 0.065579 0.372553 -0.478207
2010-10-21 06:57:22 51°13.66 2°55.958 17.1002 0.065579 0.372553 -0.443383
2010-10-21 06:57:26 51°13.66 2°55.958 17.1064 0.065579 0.372559 -0.443383
2010-10-21 06:57:31 51°13.66 2°55.958 17.1097 0.065579 0.372559 -0.443383
2010-10-21 06:57:36 51°13.659 2°55.958 17.1089 0.065579 0.372559 -0.443383
2010-10-21 06:57:42 51°13.66 2°55.959 17.111 0.065579 0.372559 -0.443383
2010-10-21 06:57:46 51°13.66 2°55.959 17.107 0.065579 0.372566 -0.478207
2010-10-21 06:57:51 51°13.66 2°55.959 17.1133 0.065579 0.372572 -0.478207
2010-10-21 06:57:56 51°13.661 2°55.959 17.1161 0.065579 0.372572 -0.443383
2010-10-21 06:58:02 51°13.661 2°55.959 17.1158 0.065579 0.372578 -0.443383
2010-10-21 06:58:06 51°13.661 2°55.959 17.1115 0.065579 0.372578 -0.443383
2010-10-21 06:58:11 51°13.661 2°55.959 17.1118 0.065579 0.372578 -0.443383
2010-10-21 06:58:16 51°13.662 2°55.96 17.1151 0.065579 0.372578 -0.443383
2010-10-21 06:58:22 51°13.662 2°55.959 17.117 0.065579 0.372585 -0.478207
2010-10-21 06:58:26 51°13.662 2°55.96 17.1213 0.065579 0.372591 -0.443383
2010-10-21 06:58:32 51°13.662 2°55.96 17.1121 0.065579 0.372585 -0.443383
2010-10-21 06:58:36 51°13.662 2°55.96 17.1063 0.065579 0.372591 -0.443383
2010-10-21 06:58:42 51°13.662 2°55.96 17.1064 0.065579 0.372591 -0.443383
2010-10-21 06:58:46 51°13.662 2°55.96 17.1149 0.065579 0.372597 -0.443383
2010-10-21 06:58:51 51°13.662 2°55.96 17.1194 0.065579 0.372604 -0.478207
2010-10-21 06:58:56 51°13.662 2°55.96 17.1221 0.065579 0.372604 -0.478207
2010-10-21 06:59:02 51°13.662 2°55.96 17.1253 0.065579 0.372604 -0.443383
2010-10-21 06:59:06 51°13.662 2°55.96 17.1273 0.065579 0.372604 -0.443383
2010-10-21 06:59:11 51°13.662 2°55.96 17.1221 0.065579 0.372604 -0.443383
2010-10-21 06:59:17 51°13.662 2°55.96 17.127 0.065579 0.37261 -0.478207
2010-10-21 06:59:22 51°13.662 2°55.96 17.1263 0.065579 0.37261 -0.443383
2010-10-21 06:59:26 51°13.662 2°55.96 17.1238 0.065579 0.37261 -0.408559
2010-10-21 06:59:31 51°13.662 2°55.96 17.1243 0.065579 0.372623 -0.478207
2010-10-21 06:59:36 51°13.662 2°55.96 17.1249 0.065579 0.372623 -0.443383
2010-10-21 06:59:42 51°13.662 2°55.96 17.1267 0.065579 0.372623 -0.443383
2010-10-21 06:59:46 51°13.662 2°55.96 17.1256 0.065579 0.372623 -0.443383
2010-10-21 06:59:51 51°13.662 2°55.96 17.1243 0.065579 0.372629 -0.478207
2010-10-21 06:59:56 51°13.662 2°55.96 17.124 0.065579 0.372635 -0.443383
2010-10-21 07:00:02 51°13.662 2°55.96 17.1297 0.065579 0.372635 -0.478207
2010-10-21 07:00:06 51°13.662 2°55.96 17.1291 0.065579 0.372642 -0.443383
2010-10-21 07:00:11 51°13.662 2°55.96 17.1219 0.065579 0.372642 -0.443383
2010-10-21 07:00:16 51°13.662 2°55.96 17.1214 0.065579 0.372642 -0.443383
2010-10-21 07:00:22 51°13.662 2°55.96 17.1257 0.065579 0.372648 -0.443383
2010-10-21 07:00:26 51°13.662 2°55.96 17.1257 0.065579 0.372654 -0.443383
2010-10-21 07:00:31 51°13.662 2°55.96 17.1276 0.065579 0.372654 -0.443383
2010-10-21 07:00:36 51°13.662 2°55.96 17.1281 0.065579 0.372654 -0.478207
2010-10-21 07:00:42 51°13.662 2°55.96 17.1286 0.065579 0.372654 -0.478207
2010-10-21 07:00:46 51°13.662 2°55.96 17.1307 0.065579 0.372661 -0.408559
2010-10-21 07:00:51 51°13.662 2°55.96 17.132 0.065579 0.372661 -0.478207
2010-10-21 07:00:56 51°13.662 2°55.96 17.1313 0.065579 0.372661 -0.478207
2010-10-21 07:01:02 51°13.662 2°55.96 17.1311 0.065579 0.372673 -0.478207
2010-10-21 07:01:06 51°13.661 2°55.96 17.1282 0.065579 0.372673 -0.443383
2010-10-21 07:01:12 51°13.661 2°55.96 17.1278 0.065579 0.372673 -0.443383
2010-10-21 07:01:16 51°13.661 2°55.96 17.1283 0.065579 0.372673 -0.443383
2010-10-21 07:01:22 51°13.661 2°55.961 17.1277 0.065579 0.37268 -0.443383
2010-10-21 07:01:26 51°13.661 2°55.961 17.1308 0.065579 0.37268 -0.443383
2010-10-21 07:01:31 51°13.661 2°55.961 17.13 0.065579 0.37268 -0.443383
2010-10-21 07:01:36 51°13.661 2°55.961 17.1288 0.065579 0.37268 -0.478207
2010-10-21 07:01:42 51°13.661 2°55.961 17.1293 0.065579 0.37268 -0.478207
2010-10-21 07:01:46 51°13.661 2°55.961 17.1292 0.065579 0.372686 -0.443383
2010-10-21 07:01:51 51°13.661 2°55.961 17.131 0.065579 0.372686 -0.443383
2010-10-21 07:01:57 51°13.661 2°55.961 17.1306 0.065579 0.372699 -0.443383
2010-10-21 07:02:02 51°13.661 2°55.961 17.1334 0.065579 0.372692 -0.478207
2010-10-21 07:02:07 51°13.661 2°55.961 17.1328 0.065579 0.372705 -0.443383
2010-10-21 07:02:12 51°13.661 2°55.961 17.1325 0.065579 0.372705 -0.443383
2010-10-21 07:02:17 51°13.661 2°55.961 17.1334 0.065579 0.372705 -0.443383
2010-10-21 07:02:22 51°13.66 2°55.961 17.1333 0.065579 0.372705 -0.478207
2010-10-21 07:02:26 51°13.66 2°55.961 17.1347 0.065579 0.372705 -0.443383
2010-10-21 07:02:31 51°13.66 2°55.961 17.1343 0.065579 0.372711 -0.443383
2010-10-21 07:02:37 51°13.661 2°55.961 17.1353 0.065579 0.372711 -0.478207
2010-10-21 07:02:42 51°13.661 2°55.961 17.1325 0.065579 0.372711 -0.478207
2010-10-21 07:02:46 51°13.661 2°55.961 17.132 0.065579 0.372718 -0.443383
2010-10-21 07:02:51 51°13.661 2°55.961 17.1344 0.065579 0.372718 -0.443383
2010-10-21 07:02:56 51°13.661 2°55.961 17.1372 0.065579 0.372724 -0.443383
2010-10-21 07:03:02 51°13.661 2°55.961 17.1363 0.065579 0.372724 -0.443383
2010-10-21 07:03:06 51°13.661 2°55.961 17.1376 0.065579 0.37273 -0.443383
2010-10-21 07:03:11 51°13.661 2°55.961 17.1332 0.065579 0.37273 -0.443383
2010-10-21 07:03:16 51°13.661 2°55.961 17.1348 0.065579 0.37273 -0.478207
2010-10-21 07:03:22 51°13.661 2°55.961 17.1328 0.065579 0.372737 -0.443383
2010-10-21 07:03:26 51°13.661 2°55.961 17.1354 0.065579 0.37273 -0.443383
2010-10-21 07:03:32 51°13.661 2°55.961 17.1382 0.065579 0.372743 -0.443383
2010-10-21 07:03:36 51°13.661 2°55.961 17.1389 0.065579 0.372743 -0.443383
2010-10-21 07:03:42 51°13.661 2°55.961 17.1408 0.065579 0.372743 -0.443383
2010-10-21 07:03:46 51°13.661 2°55.96 17.1388 0.065579 0.372743 -0.478207
2010-10-21 07:03:51 51°13.661 2°55.96 17.1368 0.065579 0.372743 -0.478207
2010-10-21 07:03:57 51°13.661 2°55.96 17.1415 0.065579 0.372749 -0.443383
2010-10-21 07:04:02 51°13.661 2°55.96 17.1425 0.065579 0.372755 -0.443383
2010-10-21 07:04:06 51°13.661 2°55.96 17.144 0.065579 0.372755 -0.443383
2010-10-21 07:04:11 51°13.661 2°55.96 17.1446 0.065579 0.372755 -0.443383
2010-10-21 07:04:17 51°13.661 2°55.96 17.1433 0.065579 0.372762 -0.443383
2010-10-21 07:04:22 51°13.661 2°55.96 17.1416 0.065579 0.372762 -0.443383
2010-10-21 07:04:26 51°13.661 2°55.96 17.1379 0.065579 0.372768 -0.443383
2010-10-21 07:04:31 51°13.661 2°55.96 17.1482 0.065579 0.372768 -0.443383
2010-10-21 07:04:36 51°13.661 2°55.96 17.1516 0.065579 0.372774 -0.478207
2010-10-21 07:04:42 51°13.661 2°55.96 17.1494 0.065579 0.372774 -0.478207
2010-10-21 07:04:46 51°13.661 2°55.96 17.1446 0.065579 0.372781 -0.478207
2010-10-21 07:04:51 51°13.661 2°55.96 17.1408 0.065579 0.372781 -0.443383
2010-10-21 07:04:57 51°13.661 2°55.96 17.1406 0.065579 0.372781 -0.478207
2010-10-21 07:05:02 51°13.661 2°55.96 17.1409 0.065579 0.372787 -0.478207
2010-10-21 07:05:06 51°13.661 2°55.96 17.1453 0.065579 0.372787 -0.478207
2010-10-21 07:05:11 51°13.661 2°55.96 17.1483 0.065579 0.372787 -0.478207
2010-10-21 07:05:16 51°13.661 2°55.96 17.1464 0.065579 0.372793 -0.443383
2010-10-21 07:05:22 51°13.661 2°55.96 17.1476 0.065579 0.372793 -0.443383
2010-10-21 07:05:26 51°13.661 2°55.96 17.1468 0.065579 0.372793 -0.478207
2010-10-21 07:05:32 51°13.662 2°55.96 17.1486 0.065579 0.3728 -0.443383
2010-10-21 07:05:36 51°13.662 2°55.96 17.1468 0.065579 0.372806 -0.443383
2010-10-21 07:05:42 51°13.662 2°55.96 17.1485 0.065579 0.372806 -0.443383
2010-10-21 07:05:46 51°13.662 2°55.96 17.1463 0.065579 0.372806 -0.443383
2010-10-21 07:05:51 51°13.662 2°55.96 17.1472 0.065579 0.372806 -0.443383
2010-10-21 07:05:57 51°13.662 2°55.96 17.1492 0.065579 0.372812 -0.443383
2010-10-21 07:06:02 51°13.662 2°55.96 17.1508 0.065475 0.372214 -0.443383
2010-10-21 07:06:06 51°13.662 2°55.96 17.1487 0.065579 0.372819 -0.443383
2010-10-21 07:06:11 51°13.662 2°55.96 17.1502 0.065579 0.372819 -0.443383
2010-10-21 07:06:16 51°13.662 2°55.96 17.1469 0.065579 0.372825 -0.408559
2010-10-21 07:06:22 51°13.662 2°55.96 17.1483 0.065579 0.372825 -0.478207
2010-10-21 07:06:26 51°13.662 2°55.96 17.1499 0.065579 0.372831 -0.443383
2010-10-21 07:06:31 51°13.662 2°55.96 17.148 0.065579 0.372831 -0.478207
2010-10-21 07:06:36 51°13.662 2°55.96 17.1496 0.065475 0.372227 -0.443383
2010-10-21 07:06:42 51°13.662 2°55.96 17.1504 0.065475 0.372227 -0.443383
2010-10-21 07:06:46 51°13.662 2°55.96 17.1506 0.065579 0.372838 -0.443383
2010-10-21 07:06:52 51°13.662 2°55.96 17.151 0.065579 0.372844 -0.443383
2010-10-21 07:06:56 51°13.662 2°55.96 17.152 0.065475 0.372239 -0.443383
2010-10-21 07:07:02 51°13.662 2°55.96 17.1516 0.065475 0.372239 -0.443383
2010-10-21 07:07:06 51°13.662 2°55.96 17.1543 0.065579 0.372857 -0.478207
2010-10-21 07:07:11 51°13.662 2°55.96 17.1586 0.065579 0.372857 -0.478207
2010-10-21 07:07:16 51°13.662 2°55.96 17.159 0.065475 0.372246 -0.443383
2010-10-21 07:07:22 51°13.662 2°55.96 17.1588 0.065475 0.372252 -0.443383
2010-10-21 07:07:26 51°13.662 2°55.96 17.1595 0.065475 0.372252 -0.478207
2010-10-21 07:07:32 51°13.662 2°55.96 17.161 0.065475 0.372258 -0.443383
2010-10-21 07:07:36 51°13.662 2°55.96 17.16 0.065475 0.372265 -0.478207
2010-10-21 07:07:42 51°13.662 2°55.96 17.1562 0.065475 0.372265 -0.478207
2010-10-21 07:07:46 51°13.662 2°55.96 17.1518 0.065475 0.372271 -0.443383
2010-10-21 07:07:51 51°13.662 2°55.96 17.1594 0.065475 0.372271 -0.478207
2010-10-21 07:07:57 51°13.662 2°55.96 17.1624 0.065475 0.372271 -0.478207
2010-10-21 07:08:02 51°13.662 2°55.96 17.1631 0.065475 0.372277 -0.478207
2010-10-21 07:08:06 51°13.662 2°55.96 17.1582 0.065475 0.372277 -0.443383
2010-10-21 07:08:11 51°13.662 2°55.96 17.153 0.065475 0.372277 -0.443383
2010-10-21 07:08:17 51°13.662 2°55.96 17.1539 0.065475 0.372284 -0.443383
2010-10-21 07:08:22 51°13.662 2°55.96 17.1575 0.065579 0.372895 -0.443383
2010-10-21 07:08:26 51°13.662 2°55.96 17.1614 0.065475 0.37229 -0.443383
2010-10-21 07:08:31 51°13.662 2°55.961 17.1636 0.065475 0.37229 -0.443383
2010-10-21 07:08:36 51°13.662 2°55.961 17.1642 0.065475 0.372296 -0.408559
2010-10-21 07:08:42 51°13.662 2°55.96 17.1652 0.065475 0.372296 -0.408559
2010-10-21 07:08:46 51°13.662 2°55.96 17.1642 0.065475 0.372303 -0.443383
2010-10-21 07:08:51 51°13.662 2°55.96 17.1647 0.065475 0.372303 -0.443383
2010-10-21 07:08:56 51°13.662 2°55.96 17.1661 0.065475 0.372309 -0.443383
2010-10-21 07:09:02 51°13.662 2°55.961 17.1663 0.065475 0.372309 -0.443383
2010-10-21 07:09:06 51°13.662 2°55.961 17.1657 0.065475 0.372315 -0.443383
2010-10-21 07:09:12 51°13.662 2°55.961 17.1667 0.065475 0.372315 -0.443383
2010-10-21 07:09:16 51°13.662 2°55.961 17.1672 0.065475 0.372322 -0.443383
2010-10-21 07:09:22 51°13.662 2°55.961 17.1657 0.065475 0.372328 -0.478207
2010-10-21 07:09:26 51°13.662 2°55.961 17.1658 0.065475 0.372328 -0.478207
2010-10-21 07:09:31 51°13.662 2°55.961 17.1658 0.065475 0.372328 -0.408559
2010-10-21 07:09:36 51°13.662 2°55.961 17.1707 0.065475 0.372341 -0.443383
2010-10-21 07:09:42 51°13.662 2°55.961 17.1682 0.065475 0.372341 -0.443383
2010-10-21 07:09:47 51°13.662 2°55.961 17.168 0.065475 0.372334 -0.478207
2010-10-21 07:09:52 51°13.662 2°55.961 17.1702 0.065475 0.372341 -0.478207
2010-10-21 07:09:57 51°13.662 2°55.961 17.1675 0.065475 0.372347 -0.478207
2010-10-21 07:10:02 51°13.662 2°55.961 17.173 0.065475 0.372347 -0.443383
2010-10-21 07:10:06 51°13.662 2°55.961 17.1642 0.065475 0.37236 -0.478207
2010-10-21 07:10:12 51°13.662 2°55.961 17.1652 0.065475 0.37236 -0.478207
2010-10-21 07:10:17 51°13.662 2°55.961 17.1696 0.065475 0.37236 -0.478207
2010-10-21 07:10:22 51°13.662 2°55.961 17.1675 0.065475 0.372366 -0.443383
2010-10-21 07:10:26 51°13.662 2°55.961 17.1688 0.065475 0.372366 -0.443383
2010-10-21 07:10:31 51°13.662 2°55.961 17.1709 0.065475 0.372366 -0.443383
2010-10-21 07:10:37 51°13.662 2°55.961 17.1724 0.065475 0.372372 -0.443383
2010-10-21 07:10:42 51°13.662 2°55.961 17.1732 0.065475 0.372372 -0.443383
2010-10-21 07:10:46 51°13.662 2°55.961 17.1769 0.065475 0.372379 -0.443383
2010-10-21 07:10:50 51°13.662 2°55.961 17.1805 0.065475 0.372379 -0.443383
2010-10-21 07:10:57 51°13.662 2°55.961 17.1798 0.065475 0.372385 -0.478207
2010-10-21 07:11:02 51°13.662 2°55.961 17.1828 0.065475 0.372385 -0.443383
2010-10-21 07:11:06 51°13.662 2°55.961 17.1771 0.065475 0.372391 -0.443383
2010-10-21 07:11:11 51°13.662 2°55.961 17.1792 0.065475 0.372391 -0.443383
2010-10-21 07:11:17 51°13.662 2°55.961 17.18 0.065475 0.372398 -0.443383
2010-10-21 07:11:22 51°13.662 2°55.961 17.1863 0.065475 0.372398 -0.443383
2010-10-21 07:11:26 51°13.662 2°55.961 17.1856 0.065475 0.372404 -0.443383
2010-10-21 07:11:31 51°13.662 2°55.961 17.187 0.065475 0.37241 -0.443383
2010-10-21 07:11:36 51°13.662 2°55.961 17.1857 0.065475 0.37241 -0.443383
2010-10-21 07:11:42 51°13.662 2°55.961 17.1835 0.065475 0.37241 -0.443383
2010-10-21 07:11:46 51°13.662 2°55.961 17.1832 0.065475 0.372423 -0.478207
2010-10-21 07:11:51 51°13.662 2°55.961 17.1862 0.065475 0.372417 -0.443383
2010-10-21 07:11:56 51°13.662 2°55.961 17.1903 0.065475 0.372423 -0.443383
2010-10-21 07:12:02 51°13.662 2°55.961 17.1917 0.065475 0.372429 -0.443383
2010-10-21 07:12:06 51°13.662 2°55.961 17.1907 0.065475 0.372429 -0.443383
2010-10-21 07:12:12 51°13.662 2°55.961 17.1888 0.065475 0.372429 -0.443383
2010-10-21 07:12:16 51°13.662 2°55.961 17.1875 0.065475 0.372442 -0.443383
2010-10-21 07:12:22 51°13.662 2°55.961 17.1901 0.065475 0.372448 -0.478207
2010-10-21 07:12:26 51°13.662 2°55.961 17.1912 0.065475 0.372448 -0.443383
2010-10-21 07:12:32 51°13.662 2°55.961 17.1947 0.065475 0.372454 -0.478207
2010-10-21 07:12:36 51°13.662 2°55.961 17.1923 0.065475 0.372461 -0.478207
2010-10-21 07:12:42 51°13.662 2°55.961 17.1933 0.065475 0.372461 -0.478207
2010-10-21 07:12:46 51°13.662 2°55.961 17.1955 0.065475 0.372461 -0.443383
2010-10-21 07:12:51 51°13.662 2°55.961 17.1958 0.065475 0.372461 -0.478207
2010-10-21 07:12:56 51°13.662 2°55.96 17.1966 0.065475 0.372473 -0.478207
2010-10-21 07:13:02 51°13.662 2°55.96 17.1949 0.065475 0.372473 -0.478207
2010-10-21 07:13:06 51°13.662 2°55.96 17.1959 0.065475 0.37248 -0.443383
2010-10-21 07:13:11 51°13.662 2°55.96 17.197 0.065475 0.37248 -0.443383
2010-10-21 07:13:17 51°13.662 2°55.96 17.1999 0.065475 0.37248 -0.478207
2010-10-21 07:13:22 51°13.662 2°55.96 17.2018 0.065475 0.372486 -0.443383
2010-10-21 07:13:26 51°13.663 2°55.96 17.1982 0.065475 0.372492 -0.443383
2010-10-21 07:13:31 51°13.663 2°55.96 17.1991 0.065475 0.372499 -0.443383
2010-10-21 07:13:36 51°13.663 2°55.96 17.1996 0.065475 0.372505 -0.478207
2010-10-21 07:13:42 51°13.663 2°55.959 17.2005 0.065475 0.372505 -0.478207
2010-10-21 07:13:46 51°13.663 2°55.959 17.2022 0.065475 0.372511 -0.443383
2010-10-21 07:13:51 51°13.663 2°55.959 17.2094 0.065475 0.372511 -0.478207
2010-10-21 07:13:56 51°13.663 2°55.959 17.2076 0.065475 0.372511 -0.478207
2010-10-21 07:14:02 51°13.663 2°55.959 17.2112 0.065475 0.372518 -0.478207
2010-10-21 07:14:06 51°13.663 2°55.959 17.2152 0.065475 0.372524 -0.443383
2010-10-21 07:14:11 51°13.663 2°55.959 17.2176 0.065475 0.372524 -0.443383
2010-10-21 07:14:17 51°13.663 2°55.959 17.2191 0.065475 0.372524 -0.443383
2010-10-21 07:14:22 51°13.662 2°55.959 17.2232 0.065475 0.37253 -0.443383
2010-10-21 07:14:26 51°13.662 2°55.959 17.2185 0.065475 0.372537 -0.443383
2010-10-21 07:14:32 51°13.662 2°55.959 17.2192 0.065475 0.372543 -0.443383
2010-10-21 07:14:36 51°13.662 2°55.959 17.222 0.065475 0.372543 -0.443383
2010-10-21 07:14:42 51°13.662 2°55.959 17.2252 0.065475 0.372543 -0.443383
2010-10-21 07:14:46 51°13.662 2°55.959 17.2244 0.065475 0.372549 -0.478207
2010-10-21 07:14:52 51°13.662 2°55.959 17.2235 0.065475 0.372549 -0.443383
2010-10-21 07:14:56 51°13.662 2°55.958 17.2238 0.065475 0.372556 -0.478207
2010-10-21 07:15:02 51°13.662 2°55.958 17.2205 0.065475 0.372562 -0.478207
2010-10-21 07:15:06 51°13.662 2°55.958 17.218 0.065475 0.372568 -0.443383
2010-10-21 07:15:11 51°13.662 2°55.958 17.2183 0.065475 0.372568 -0.443383
2010-10-21 07:15:16 51°13.661 2°55.959 17.2288 0.065475 0.372575 -0.443383
2010-10-21 07:15:22 51°13.661 2°55.958 17.2231 0.065475 0.372575 -0.443383
2010-10-21 07:15:26 51°13.661 2°55.958 17.2353 0.065475 0.372575 -0.478207
2010-10-21 07:15:31 51°13.662 2°55.959 17.2357 0.065475 0.372581 -0.443383
2010-10-21 07:15:36 51°13.662 2°55.959 17.2315 0.065475 0.372587 -0.478207
2010-10-21 07:15:42 51°13.663 2°55.959 17.2257 0.065475 0.372587 -0.478207
2010-10-21 07:15:46 51°13.663 2°55.96 17.2207 0.065475 0.372587 -0.478207
2010-10-21 07:15:51 51°13.663 2°55.96 17.2289 0.065475 0.372587 -0.443383
2010-10-21 07:15:56 51°13.663 2°55.96 17.2328 0.065475 0.3726 -0.443383
2010-10-21 07:16:02 51°13.663 2°55.96 17.2323 0.065475 0.372594 -0.443383
2010-10-21 07:16:06 51°13.663 2°55.959 17.2313 0.065475 0.372606 -0.443383
2010-10-21 07:16:11 51°13.663 2°55.959 17.2351 0.065475 0.372606 -0.443383
2010-10-21 07:16:16 51°13.663 2°55.959 17.235 0.065475 0.372606 -0.478207
2010-10-21 07:16:22 51°13.663 2°55.959 17.237 0.065475 0.372619 -0.443383
2010-10-21 07:16:26 51°13.663 2°55.959 17.2411 0.065475 0.372619 -0.443383
2010-10-21 07:16:31 51°13.663 2°55.959 17.2404 0.065475 0.372625 -0.443383
2010-10-21 07:16:37 51°13.663 2°55.959 17.2378 0.065475 0.372625 -0.443383
2010-10-21 07:16:42 51°13.663 2°55.96 17.2366 0.065475 0.372625 -0.443383
2010-10-21 07:16:46 51°13.663 2°55.96 17.2369 0.065475 0.372625 -0.443383
2010-10-21 07:16:52 51°13.663 2°55.96 17.2365 0.065475 0.372632 -0.443383
2010-10-21 07:16:56 51°13.663 2°55.96 17.2386 0.065475 0.372632 -0.478207
2010-10-21 07:17:02 51°13.663 2°55.96 17.2419 0.065475 0.372638 -0.443383
2010-10-21 07:17:06 51°13.663 2°55.96 17.2412 0.065475 0.372644 -0.443383
2010-10-21 07:17:12 51°13.663 2°55.96 17.2429 0.065475 0.372644 -0.443383
2010-10-21 07:17:17 51°13.663 2°55.96 17.2392 0.065371 0.372033 -0.408559
2010-10-21 07:17:22 51°13.663 2°55.96 17.2359 0.065371 0.372039 -0.478207
2010-10-21 07:17:26 51°13.663 2°55.96 17.2378 0.065371 0.372033 -0.443383
2010-10-21 07:17:31 51°13.663 2°55.96 17.239 0.065371 0.372039 -0.478207
2010-10-21 07:17:36 51°13.663 2°55.96 17.2387 0.065371 0.372045 -0.443383
2010-10-21 07:17:42 51°13.663 2°55.96 17.2377 0.065371 0.372045 -0.443383
2010-10-21 07:17:46 51°13.663 2°55.96 17.235 0.065475 0.372651 -0.408559
2010-10-21 07:17:51 51°13.663 2°55.96 17.2352 0.065371 0.372045 -0.443383
2010-10-21 07:17:56 51°13.663 2°55.96 17.2402 0.065371 0.372052 -0.443383
2010-10-21 07:18:02 51°13.663 2°55.96 17.2435 0.065371 0.372052 -0.443383
2010-10-21 07:18:06 51°13.663 2°55.96 17.2372 0.065371 0.372052 -0.443383
2010-10-21 07:18:11 51°13.662 2°55.96 17.233 0.065371 0.372052 -0.443383
2010-10-21 07:18:17 51°13.662 2°55.96 17.1827 0.065371 0.372058 -0.443383
2010-10-21 07:18:22 51°13.662 2°55.959 17.1754 0.065371 0.372064 -0.443383
2010-10-21 07:18:26 51°13.663 2°55.959 17.1941 0.065371 0.372071 -0.478207
2010-10-21 07:18:31 51°13.663 2°55.957 17.1451 0.065371 0.372077 -0.443383
2010-10-21 07:18:36 51°13.664 2°55.955 17.1293 0.065371 0.372077 -0.478207
2010-10-21 07:18:42 51°13.665 2°55.952 17.1216 0.065371 0.372077 -0.478207
2010-10-21 07:18:46 51°13.666 2°55.949 17.2037 0.065371 0.372083 -0.443383
2010-10-21 07:18:52 51°13.667 2°55.943 17.1945 0.065371 0.37209 -0.443383
2010-10-21 07:18:57 51°13.669 2°55.938 17.1959 0.065371 0.37209 -0.408559
2010-10-21 07:19:03 51°13.671 2°55.93 17.1956 0.065371 0.372102 -0.478207
2010-10-21 07:19:08 51°13.673 2°55.922 17.2042 0.065371 0.372109 -0.443383
2010-10-21 07:19:14 51°13.676 2°55.912 17.2195 0.065371 0.372109 -0.443383
2010-10-21 07:19:20 51°13.678 2°55.902 17.2092 0.065371 0.372102 -0.443383
2010-10-21 07:19:25 51°13.68 2°55.892 17.2064 0.065371 0.372109 -0.408559
2010-10-21 07:19:30 51°13.682 2°55.882 17.2293 0.065371 0.372109 -0.443383
2010-10-21 07:19:35 51°13.683 2°55.872 17.2345 0.065371 0.372115 -0.443383
2010-10-21 07:19:40 51°13.685 2°55.861 17.2529 0.065371 0.372109 -0.443383
2010-10-21 07:19:45 51°13.686 2°55.851 17.2649 0.065371 0.372109 -0.443383
2010-10-21 07:19:50 51°13.688 2°55.841 17.2531 0.065371 0.372115 -0.443383
2010-10-21 07:19:55 51°13.689 2°55.83 17.2408 0.065371 0.372115 -0.443383
2010-10-21 07:20:00 51°13.69 2°55.821 17.2387 0.065371 0.372115 -0.443383
2010-10-21 07:20:05 51°13.691 2°55.812 17.242 0.065371 0.372121 -0.443383
2010-10-21 07:20:10 51°13.692 2°55.803 17.2407 0.065371 0.372121 -0.408559
2010-10-21 07:20:15 51°13.693 2°55.794 17.2425 0.065371 0.372121 -0.408559
2010-10-21 07:20:20 51°13.694 2°55.785 17.2343 0.065371 0.372121 -0.443383
2010-10-21 07:20:25 51°13.694 2°55.777 17.241 0.065371 0.372128 -0.443383
2010-10-21 07:20:30 51°13.694 2°55.769 17.233 0.065371 0.372128 -0.408559
2010-10-21 07:20:35 51°13.694 2°55.761 17.2258 0.065371 0.372134 -0.443383
2010-10-21 07:20:40 51°13.695 2°55.754 17.2143 0.065371 0.37214 -0.478207
2010-10-21 07:20:45 51°13.695 2°55.749 17.2645 0.065371 0.37214 -0.478207
2010-10-21 07:20:50 51°13.695 2°55.746 17.2606 0.065371 0.372134 -0.443383
2010-10-21 07:20:54 51°13.695 2°55.745 17.2452 0.065371 0.372134 -0.478207
2010-10-21 07:20:59 51°13.695 2°55.744 17.2435 0.065371 0.372128 -0.443383
2010-10-21 07:21:04 51°13.696 2°55.743 17.2447 0.065371 0.372128 -0.478207
2010-10-21 07:21:09 51°13.696 2°55.743 17.2342 0.065371 0.372134 -0.478207
2010-10-21 07:21:14 51°13.697 2°55.744 17.2491 0.065371 0.372134 -0.478207
2010-10-21 07:21:18 51°13.697 2°55.744 17.2448 0.065371 0.37214 -0.443383
2010-10-21 07:21:23 51°13.698 2°55.745 17.2445 0.065371 0.37214 -0.443383
2010-10-21 07:21:28 51°13.7 2°55.746 17.2308 0.065371 0.37214 -0.478207
2010-10-21 07:21:34 51°13.701 2°55.747 17.1941 0.065371 0.372147 -0.443383
2010-10-21 07:21:38 51°13.702 2°55.748 17.1242 0.065371 0.372147 -0.443383
2010-10-21 07:21:43 51°13.703 2°55.748 17.1681 0.065371 0.372147 -0.443383
2010-10-21 07:21:47 51°13.704 2°55.748 17.1842 0.065371 0.372147 -0.478207
2010-10-21 07:21:53 51°13.703 2°55.748 17.1459 0.065371 0.372153 -0.478207
2010-10-21 07:21:58 51°13.702 2°55.747 17.2021 0.065371 0.372159 -0.443383
2010-10-21 07:22:02 51°13.701 2°55.746 17.2335 0.065371 0.372153 -0.443383
2010-10-21 07:22:07 51°13.7 2°55.745 17.2353 0.065371 0.372153 -0.443383
2010-10-21 07:22:12 51°13.698 2°55.744 17.2373 0.065371 0.372153 -0.443383
2010-10-21 07:22:17 51°13.697 2°55.743 17.236 0.065371 0.372147 -0.443383
2010-10-21 07:22:22 51°13.696 2°55.742 17.2748 0.065371 0.372147 -0.478207
2010-10-21 07:22:27 51°13.696 2°55.742 17.2815 0.065371 0.372153 -0.443383
2010-10-21 07:22:33 51°13.697 2°55.742 17.3113 0.065371 0.37214 -0.478207
2010-10-21 07:22:38 51°13.699 2°55.741 17.3033 0.065371 0.372134 -0.478207
2010-10-21 07:22:45 51°13.703 2°55.739 17.3021 0.065371 0.372134 -0.478207
2010-10-21 07:22:50 51°13.707 2°55.737 17.2942 0.065371 0.372134 -0.478207
2010-10-21 07:22:54 51°13.71 2°55.734 17.2869 0.065371 0.37214 -0.443383
2010-10-21 07:22:59 51°13.715 2°55.731 17.2817 0.065371 0.372153 -0.443383
2010-10-21 07:23:04 51°13.72 2°55.726 17.2488 0.065371 0.372159 -0.443383
2010-10-21 07:23:09 51°13.726 2°55.721 17.2418 0.065371 0.372153 -0.478207
2010-10-21 07:23:14 51°13.733 2°55.715 17.1966 0.065371 0.372153 -0.478207
2010-10-21 07:23:19 51°13.739 2°55.709 17.1953 0.065371 0.372159 -0.443383
2010-10-21 07:23:24 51°13.747 2°55.702 17.1751 0.065371 0.372166 -0.443383
2010-10-21 07:23:29 51°13.755 2°55.695 17.1678 0.065371 0.372172 -0.478207
2010-10-21 07:23:34 51°13.764 2°55.687 17.1385 0.065371 0.372166 -0.443383
2010-10-21 07:23:38 51°13.771 2°55.68 17.1366 0.065371 0.372185 -0.443383
2010-10-21 07:23:43 51°13.781 2°55.672 17.0862 0.065371 0.372185 -0.443383
2010-10-21 07:23:48 51°13.792 2°55.664 17.0973 0.065371 0.372191 -0.443383
2010-10-21 07:23:54 51°13.805 2°55.654 17.1298 0.065371 0.372197 -0.478207
2010-10-21 07:23:58 51°13.814 2°55.647 17.0891 0.065371 0.372204 -0.443383
2010-10-21 07:24:03 51°13.825 2°55.638 17.1292 0.065371 0.372204 -0.443383
2010-10-21 07:24:08 51°13.837 2°55.629 17.0822 0.065371 0.372216 -0.443383
2010-10-21 07:24:13 51°13.849 2°55.621 17.128 0.065371 0.372216 -0.443383
2010-10-21 07:24:18 51°13.861 2°55.611 17.1323 0.065371 0.372216 -0.443383
2010-10-21 07:24:23 51°13.874 2°55.602 17.0467 0.065371 0.372229 -0.478207
2010-10-21 07:24:28 51°13.886 2°55.593 17.0611 0.065371 0.372235 -0.478207
2010-10-21 07:24:33 51°13.899 2°55.583 17.0296 0.065371 0.372235 -0.443383
2010-10-21 07:24:37 51°13.909 2°55.575 17.0824 0.065371 0.372235 -0.443383
2010-10-21 07:24:42 51°13.922 2°55.566 17.1028 0.065371 0.372235 -0.443383
2010-10-21 07:24:47 51°13.935 2°55.556 17.0574 0.065371 0.372229 -0.443383
2010-10-21 07:24:52 51°13.948 2°55.546 17.0808 0.065371 0.372223 -0.478207
2010-10-21 07:24:58 51°13.964 2°55.534 17.0917 0.065371 0.372216 -0.443383
2010-10-21 07:25:03 51°13.977 2°55.524 17.0233 0.065371 0.372223 -0.443383
2010-10-21 07:25:09 51°13.993 2°55.512 17.1246 0.065371 0.372229 -0.443383
2010-10-21 07:25:14 51°14.007 2°55.503 17.1164 0.065371 0.372229 -0.443383
2010-10-21 07:25:19 51°14.021 2°55.493 17.1025 0.065371 0.372242 -0.443383
2010-10-21 07:25:24 51°14.035 2°55.483 17.1456 0.065371 0.372248 -0.443383
2010-10-21 07:25:29 51°14.048 2°55.473 17.0812 0.065371 0.372242 -0.443383
2010-10-21 07:25:34 51°14.062 2°55.463 17.1601 0.065371 0.372242 -0.443383
2010-10-21 07:25:38 51°14.073 2°55.454 17.0665 0.065371 0.372229 -0.443383
2010-10-21 07:25:43 51°14.087 2°55.444 17.1263 0.065371 0.372229 -0.443383
2010-10-21 07:25:48 51°14.101 2°55.433 17.0845 0.065371 0.372216 -0.443383
2010-10-21 07:25:54 51°14.118 2°55.421 17.1308 0.065371 0.372216 -0.478207
2010-10-21 07:25:58 51°14.129 2°55.412 17.1655 0.065371 0.372235 -0.443383
2010-10-21 07:26:04 51°14.146 2°55.398 17.1222 0.065371 0.372273 -0.443383
2010-10-21 07:26:09 51°14.16 2°55.387 17.144 0.065371 0.372318 -0.443383
2010-10-21 07:26:14 51°14.174 2°55.374 17.0958 0.065371 0.372318 -0.443383
2010-10-21 07:26:20 51°14.19 2°55.359 17.1339 0.065371 0.37233 -0.478207
2010-10-21 07:26:25 51°14.204 2°55.347 17.0363 0.065371 0.37233 -0.443383
2010-10-21 07:26:30 51°14.217 2°55.333 16.995 0.065371 0.372299 -0.443383
2010-10-21 07:26:35 51°14.231 2°55.32 17.0904 0.065371 0.372267 -0.478207
2010-10-21 07:26:40 51°14.245 2°55.307 17.0736 0.065371 0.372235 -0.478207
2010-10-21 07:26:45 51°14.259 2°55.294 17.03 0.065371 0.372235 -0.478207
2010-10-21 07:26:50 51°14.273 2°55.28 17.0405 0.065371 0.372204 -0.478207
2010-10-21 07:26:55 51°14.287 2°55.267 17.0924 0.065371 0.372204 -0.478207
2010-10-21 07:27:00 51°14.301 2°55.253 17.1245 0.065371 0.372242 -0.478207
2010-10-21 07:27:05 51°14.315 2°55.238 17.0178 0.065371 0.37228 -0.478207
2010-10-21 07:27:10 51°14.329 2°55.223 16.9751 0.065371 0.372343 -0.478207
2010-10-21 07:27:14 51°14.34 2°55.212 17.0216 0.065371 0.372343 -0.478207
2010-10-21 07:27:19 51°14.355 2°55.197 17.0314 0.065371 0.372375 -0.443383
2010-10-21 07:27:24 51°14.37 2°55.184 17.0007 0.065371 0.372388 -0.443383
2010-10-21 07:27:30 51°14.387 2°55.167 17.0662 0.065371 0.372375 -0.443383
2010-10-21 07:27:34 51°14.399 2°55.156 17.1191 0.065371 0.372394 -0.408559
2010-10-21 07:27:39 51°14.414 2°55.14 17.0146 0.065371 0.372349 -0.408559
2010-10-21 07:27:44 51°14.428 2°55.126 17.0937 0.065371 0.372349 -0.408559
2010-10-21 07:27:49 51°14.443 2°55.111 17.0528 0.065371 0.37233 -0.478207
2010-10-21 07:27:54 51°14.458 2°55.095 17.0793 0.065371 0.372343 -0.408559
2010-10-21 07:27:58 51°14.469 2°55.083 16.9895 0.065371 0.372318 -0.478207
2010-10-21 07:28:03 51°14.484 2°55.068 17.0813 0.065267 0.371725 -0.443383
2010-10-21 07:28:08 51°14.499 2°55.052 17.0017 0.065371 0.372349 -0.478207
2010-10-21 07:28:14 51°14.517 2°55.035 17.1326 0.065371 0.372349 -0.478207
2010-10-21 07:28:18 51°14.53 2°55.023 17.1054 0.065371 0.372356 -0.478207
2010-10-21 07:28:23 51°14.544 2°55.006 17.1002 0.065371 0.372388 -0.478207
2010-10-21 07:28:27 51°14.556 2°54.993 17.0832 0.065371 0.372407 -0.478207
2010-10-21 07:28:33 51°14.574 2°54.973 17.0962 0.065371 0.372438 -0.513031
2010-10-21 07:28:38 51°14.588 2°54.957 17.0655 0.065371 0.372451 -0.513031
2010-10-21 07:28:42 51°14.599 2°54.943 17.0798 0.065371 0.372451 -0.513031
2010-10-21 07:28:47 51°14.614 2°54.927 17.0726 0.065371 0.372495 -0.513031
2010-10-21 07:28:52 51°14.628 2°54.91 17.0452 0.065371 0.372464 -0.513031
2010-10-21 07:28:57 51°14.642 2°54.893 17.0694 0.065371 0.37247 -0.513031
2010-10-21 07:29:02 51°14.656 2°54.876 17.0183 0.065371 0.372489 -0.547855